Observation data for Wall on 12/07/2018      Previous  Date       Current Mesonet Observations  Soil Data  Daily Summary Page  Observations in Plain Language
KWA1 070600Z 01007KT 05/04 A3031 RMK A01 T00460035  RH  093%=      5-min Rain = 0
KWA1 070601Z 01007KT 05/04 A3031 RMK A01 T00460035  RH  093%=      5-min Rain = 0
KWA1 070602Z 01007KT 05/04 A3031 RMK A01 T00460036  RH  093%=      5-min Rain = 0
KWA1 070603Z 01006KT 05/04 A3031 RMK A01 T00460036  RH  093%=      5-min Rain = 0
KWA1 070604Z 00006KT 05/04 A3031 RMK A01 T00460037  RH  093%=      5-min Rain = 0
KWA1 070605Z 00006KT 05/04 A3031 RMK A01 T00460036  RH  093%=      5-min Rain = 0
KWA1 070606Z 35005KT 05/04 A3031 RMK A01 T00460036  RH  093%=      5-min Rain = 0
KWA1 070607Z 01007KT 05/04 A3031 RMK A01 T00460036  RH  094%=      5-min Rain = 0
KWA1 070608Z 01008KT 05/04 A3031 RMK A01 T00460036  RH  094%=      5-min Rain = 0
KWA1 070609Z 01007KT 05/04 A303 RMK A01 T00460036  RH  093%=      5-min Rain = 0
KWA1 070610Z 02007KT 05/04 A303 RMK A01 T00450035  RH  093%=      5-min Rain = 0
KWA1 070611Z 02006KT 05/04 A303 RMK A01 T00450036  RH  093%=      5-min Rain = 0
KWA1 070612Z 02007KT 05/04 A303 RMK A01 T00450036  RH  094%=      5-min Rain = 0
KWA1 070613Z 02007KT 05/04 A303 RMK A01 T00450036  RH  094%=      5-min Rain = 0
KWA1 070614Z 02007KT 05/04 A303 RMK A01 T00450036  RH  094%=      5-min Rain = 0
KWA1 070615Z 02007KT 05/04 A303 RMK A01 T00450036  RH  094%=      5-min Rain = 0
KWA1 070616Z 02006KT 05/04 A303 RMK A01 T00450036  RH  094%=      5-min Rain = 0
KWA1 070617Z 02006KT 05/04 A303 RMK A01 T00450035  RH  094%=      5-min Rain = 0
KWA1 070618Z 02005KT 05/04 A303 RMK A01 T00450036  RH  094%=      5-min Rain = 0
KWA1 070619Z 02005KT 05/04 A303 RMK A01 T00450036  RH  094%=      5-min Rain = 0
KWA1 070620Z 02006KT 05/04 A303 RMK A01 T00450037  RH  094%=      5-min Rain = 0
KWA1 070621Z 02007KT 05/04 A303 RMK A01 T00450036  RH  094%=      5-min Rain = 0
KWA1 070622Z 02007KT 05/04 A303 RMK A01 T00450037  RH  094%=      5-min Rain = 0
KWA1 070623Z 02006KT 05/04 A303 RMK A01 T00450036  RH  094%=      5-min Rain = 0
KWA1 070624Z 02006KT 05/04 A303 RMK A01 T00450036  RH  094%=      5-min Rain = 0
KWA1 070625Z 02005KT 05/04 A303 RMK A01 T00450036  RH  094%=      5-min Rain = 0
KWA1 070626Z 02006KT 05/04 A3029 RMK A01 T00450037  RH  094%=      5-min Rain = 0
KWA1 070627Z 02005KT 05/04 A3029 RMK A01 T00450037  RH  094%=      5-min Rain = 0
KWA1 070628Z 02005KT 05/04 A3029 RMK A01 T00450037  RH  095%=      5-min Rain = 0
KWA1 070629Z 03005KT 05/04 A3029 RMK A01 T00450037  RH  095%=      5-min Rain = 0
KWA1 070630Z 03005KT 05/04 A3029 RMK A01 T00450038  RH  095%=      5-min Rain = 0
KWA1 070631Z 02005KT 05/04 A3029 RMK A01 T00450038  RH  095%=      5-min Rain = 0
KWA1 070632Z 02006KT 05/04 A3029 RMK A01 T00450038  RH  095%=      5-min Rain = 0
KWA1 070633Z 02007KT 05/04 A3029 RMK A01 T00460038  RH  095%=      5-min Rain = 0
KWA1 070634Z 02007KT 05/04 A3028 RMK A01 T00450038  RH  095%=      5-min Rain = 0
KWA1 070635Z 02007KT 05/04 A3028 RMK A01 T00450037  RH  095%=      5-min Rain = 0
KWA1 070636Z 02007KT 05/04 A3028 RMK A01 T00450037  RH  095%=      5-min Rain = 0
KWA1 070637Z 02006KT 05/04 A3028 RMK A01 T00450037  RH  095%=      5-min Rain = 0
KWA1 070638Z 02005KT 05/04 A3028 RMK A01 T00450037  RH  095%=      5-min Rain = 0
KWA1 070639Z 02006KT 05/04 A3028 RMK A01 T00450038  RH  095%=      5-min Rain = 0
KWA1 070640Z 03006KT 05/04 A3028 RMK A01 T00450038  RH  095%=      5-min Rain = 0
KWA1 070641Z 03005KT 05/04 A3028 RMK A01 T00450038  RH  095%=      5-min Rain = 0
KWA1 070642Z 03005KT 05/04 A3028 RMK A01 T00450038  RH  095%=      5-min Rain = 0
KWA1 070643Z 03006KT 05/04 A3028 RMK A01 T00450038  RH  095%=      5-min Rain = 0
KWA1 070644Z 03006KT 05/04 A3028 RMK A01 T00460038  RH  095%=      5-min Rain = 0
KWA1 070645Z 03006KT 05/04 A3028 RMK A01 T00450037  RH  095%=      5-min Rain = 0
KWA1 070646Z 03006KT 05/04 A3028 RMK A01 T00450037  RH  095%=      5-min Rain = 0
KWA1 070647Z 02006KT 05/04 A3028 RMK A01 T00450037  RH  095%=      5-min Rain = 0
KWA1 070648Z 02005KT 05/04 A3028 RMK A01 T00450037  RH  095%=      5-min Rain = 0
KWA1 070649Z 03005KT 05/04 A3028 RMK A01 T00450037  RH  095%=      5-min Rain = 0
KWA1 070650Z 02005KT 05/04 A3028 RMK A01 T00450037  RH  095%=      5-min Rain = 0
KWA1 070651Z 02006KT 05/04 A3028 RMK A01 T00450037  RH  094%=      5-min Rain = 0
KWA1 070652Z 02006KT 05/04 A3028 RMK A01 T00450037  RH  094%=      5-min Rain = 0
KWA1 070653Z 03005KT 05/04 A3028 RMK A01 T00460037  RH  094%=      5-min Rain = 0
KWA1 070654Z 04006KT 05/04 A3028 RMK A01 T00460038  RH  095%=      5-min Rain = 0
KWA1 070655Z 03005KT 05/04 A3028 RMK A01 T00460038  RH  094%=      5-min Rain = 0
KWA1 070656Z 02006KT 05/04 A3028 RMK A01 T00460037  RH  094%=      5-min Rain = 0
KWA1 070657Z 02006KT 05/04 A3028 RMK A01 T00460037  RH  094%=      5-min Rain = 0
KWA1 070658Z 02007KT 05/04 A3028 RMK A01 T00460037  RH  094%=      5-min Rain = 0
KWA1 070659Z 02006KT 05/04 A3029 RMK A01 T00460037  RH  094%=      5-min Rain = 0
KWA1 070700Z 02005KT 05/04 A3029 RMK A01 T00460037  RH  094%=      5-min Rain = 0
KWA1 070701Z 02005KT 05/04 A3029 RMK A01 T00460037  RH  094%=      5-min Rain = 0
KWA1 070702Z 01007KT 05/04 A3029 RMK A01 T00460037  RH  094%=      5-min Rain = 0
KWA1 070703Z 01007KT 05/04 A3029 RMK A01 T00460037  RH  094%=      5-min Rain = 0
KWA1 070704Z 01006KT 05/04 A3029 RMK A01 T00460037  RH  094%=      5-min Rain = 0
KWA1 070705Z 01007KT 05/04 A3029 RMK A01 T00460037  RH  094%=      5-min Rain = 0
KWA1 070706Z 01007KT 05/04 A3029 RMK A01 T00460036  RH  094%=      5-min Rain = 0
KWA1 070707Z 01007KT 05/04 A3029 RMK A01 T00460036  RH  093%=      5-min Rain = 0
KWA1 070708Z 02006KT 05/04 A3029 RMK A01 T00460037  RH  093%=      5-min Rain = 0
KWA1 070709Z 01006KT 05/04 A3029 RMK A01 T00460037  RH  093%=      5-min Rain = 0
KWA1 070710Z 01007KT 05/04 A3029 RMK A01 T00470037  RH  093%=      5-min Rain = 0
KWA1 070711Z 02006KT 05/04 A3029 RMK A01 T00460036  RH  093%=      5-min Rain = 0
KWA1 070712Z 02005KT 05/04 A3029 RMK A01 T00460036  RH  093%=      5-min Rain = 0
KWA1 070713Z 02005KT 05/04 A3029 RMK A01 T00460036  RH  093%=      5-min Rain = 0
KWA1 070714Z 02005KT 05/04 A3029 RMK A01 T00460036  RH  093%=      5-min Rain = 0
KWA1 070715Z 02005KT 05/04 A3029 RMK A01 T00470037  RH  093%=      5-min Rain = 0
KWA1 070716Z 01004KT 05/04 A3029 RMK A01 T00470036  RH  093%=      5-min Rain = 0
KWA1 070717Z 02004KT 05/04 A3029 RMK A01 T00470037  RH  093%=      5-min Rain = 0
KWA1 070718Z 03004KT 05/04 A3029 RMK A01 T00470037  RH  093%=      5-min Rain = 0
KWA1 070719Z 02005KT 05/04 A3029 RMK A01 T00470037  RH  093%=      5-min Rain = 0
KWA1 070720Z 02006KT 05/04 A3029 RMK A01 T00470037  RH  093%=      5-min Rain = 0
KWA1 070721Z 03006KT 05/04 A3029 RMK A01 T00470036  RH  093%=      5-min Rain = 0
KWA1 070722Z 03005KT 05/04 A3028 RMK A01 T00470036  RH  093%=      5-min Rain = 0
KWA1 070723Z 03005KT 05/04 A3028 RMK A01 T00470036  RH  093%=      5-min Rain = 0
KWA1 070724Z 04005KT 05/04 A3028 RMK A01 T00470036  RH  093%=      5-min Rain = 0
KWA1 070725Z 05005KT 05/04 A3028 RMK A01 T00470036  RH  093%=      5-min Rain = 0
KWA1 070726Z 04005KT 05/04 A3028 RMK A01 T00470037  RH  093%=      5-min Rain = 0
KWA1 070727Z 03006KT 05/04 A3028 RMK A01 T00470037  RH  093%=      5-min Rain = 0
KWA1 070728Z 03006KT 05/04 A3028 RMK A01 T00470037  RH  093%=      5-min Rain = 0
KWA1 070729Z 02008KT 05/04 A3028 RMK A01 T00480037  RH  093%=      5-min Rain = 0
KWA1 070730Z 02007KT 05/04 A3029 RMK A01 T00470036  RH  092%=      5-min Rain = 0
KWA1 070731Z 02008KT 05/04 A3029 RMK A01 T00470036  RH  092%=      5-min Rain = 0
KWA1 070732Z 03006KT 05/04 A3029 RMK A01 T00470035  RH  092%=      5-min Rain = 0
KWA1 070733Z 02006KT 05/04 A3028 RMK A01 T00470035  RH  092%=      5-min Rain = 0
KWA1 070734Z 02006KT 05/04 A3028 RMK A01 T00470035  RH  092%=      5-min Rain = 0
KWA1 070735Z 02007KT 05/04 A3028 RMK A01 T00470035  RH  092%=      5-min Rain = 0
KWA1 070736Z 02007KT 05/04 A3028 RMK A01 T00470035  RH  092%=      5-min Rain = 0
KWA1 070737Z 02008KT 05/04 A3028 RMK A01 T00470035  RH  092%=      5-min Rain = 0
KWA1 070738Z 02008KT 05/04 A3028 RMK A01 T00470035  RH  092%=      5-min Rain = 0
KWA1 070739Z 02008KT 05/04 A3028 RMK A01 T00470035  RH  092%=      5-min Rain = 0
KWA1 070740Z 02006KT 05/04 A3028 RMK A01 T00470035  RH  092%=      5-min Rain = 0
KWA1 070741Z 02007KT 05/04 A3028 RMK A01 T00480036  RH  092%=      5-min Rain = 0
KWA1 070742Z 03006KT 05/04 A3028 RMK A01 T00480036  RH  092%=      5-min Rain = 0
KWA1 070743Z 03006KT 05/04 A3028 RMK A01 T00480036  RH  092%=      5-min Rain = 0
KWA1 070744Z 03007KT 05/04 A3028 RMK A01 T00480036  RH  092%=      5-min Rain = 0
KWA1 070745Z 02006KT 05/04 A3028 RMK A01 T00470036  RH  092%=      5-min Rain = 0
KWA1 070746Z 02006KT 05/04 A3028 RMK A01 T00480036  RH  092%=      5-min Rain = 0
KWA1 070747Z 02006KT 05/04 A3028 RMK A01 T00480037  RH  093%=      5-min Rain = 0
KWA1 070748Z 02008KT 05/04 A3028 RMK A01 T00480037  RH  093%=      5-min Rain = 0
KWA1 070749Z 02008KT 05/04 A3028 RMK A01 T00480036  RH  092%=      5-min Rain = 0
KWA1 070750Z 02006KT 05/04 A3028 RMK A01 T00480036  RH  092%=      5-min Rain = 0
KWA1 070751Z 02006KT 05/04 A3028 RMK A01 T00480036  RH  092%=      5-min Rain = 0
KWA1 070752Z 02006KT 05/04 A3028 RMK A01 T00480036  RH  092%=      5-min Rain = 0
KWA1 070753Z 02006KT 05/04 A3028 RMK A01 T00480036  RH  092%=      5-min Rain = 0
KWA1 070754Z 02006KT 05/04 A3028 RMK A01 T00480036  RH  092%=      5-min Rain = 0
KWA1 070755Z 02005KT 05/04 A3028 RMK A01 T00480036  RH  092%=      5-min Rain = 0
KWA1 070756Z 02007KT 05/04 A3028 RMK A01 T00480036  RH  092%=      5-min Rain = 0
KWA1 070757Z 02006KT 05/04 A3028 RMK A01 T00480036  RH  092%=      5-min Rain = 0
KWA1 070758Z 02007KT 05/04 A3028 RMK A01 T00480035  RH  092%=      5-min Rain = 0
KWA1 070759Z 01007KT 05/04 A3028 RMK A01 T00480035  RH  092%=      5-min Rain = 0
KWA1 070800Z 02006KT 05/04 A3028 RMK A01 T00480035  RH  091%=      5-min Rain = 0
KWA1 070801Z 02006KT 05/04 A3028 RMK A01 T00480035  RH  091%=      5-min Rain = 0
KWA1 070802Z 02005KT 05/04 A3028 RMK A01 T00480035  RH  091%=      5-min Rain = 0
KWA1 070803Z 02005KT 05/04 A3028 RMK A01 T00480035  RH  092%=      5-min Rain = 0
KWA1 070804Z 02005KT 05/04 A3028 RMK A01 T00480036  RH  092%=      5-min Rain = 0
KWA1 070805Z 02006KT 05/04 A3029 RMK A01 T00480035  RH  091%=      5-min Rain = 0
KWA1 070806Z 02004KT 05/04 A3029 RMK A01 T00480036  RH  091%=      5-min Rain = 0
KWA1 070807Z 01005KT 05/04 A3029 RMK A01 T00480036  RH  092%=      5-min Rain = 0
KWA1 070808Z 01006KT 05/04 A3029 RMK A01 T00490036  RH  091%=      5-min Rain = 0
KWA1 070809Z 02006KT 05/04 A3029 RMK A01 T00490035  RH  091%=      5-min Rain = 0
KWA1 070810Z 01007KT 05/04 A3029 RMK A01 T00490035  RH  091%=      5-min Rain = 0
KWA1 070811Z 02006KT 05/03 A3029 RMK A01 T00480034  RH  090%=      5-min Rain = 0
KWA1 070812Z 36005KT 05/03 A3029 RMK A01 T00480034  RH  091%=      5-min Rain = 0
KWA1 070813Z 01003KT 05/04 A3029 RMK A01 T00490036  RH  091%=      5-min Rain = 0
KWA1 070814Z 02004KT 05/04 A3029 RMK A01 T00490036  RH  091%=      5-min Rain = 0
KWA1 070815Z 02004KT 05/04 A3029 RMK A01 T00490036  RH  091%=      5-min Rain = 0
KWA1 070816Z 02006KT 05/04 A3029 RMK A01 T00490036  RH  091%=      5-min Rain = 0
KWA1 070817Z 01006KT 05/04 A3029 RMK A01 T00490035  RH  090%=      5-min Rain = 0
KWA1 070818Z 01006KT 05/04 A3029 RMK A01 T00490035  RH  090%=      5-min Rain = 0
KWA1 070819Z 01007KT 05/04 A3029 RMK A01 T00490035  RH  090%=      5-min Rain = 0
KWA1 070820Z 02006KT 05/03 A3029 RMK A01 T00490034  RH  090%=      5-min Rain = 0
KWA1 070821Z 01004KT 05/03 A3029 RMK A01 T00490034  RH  090%=      5-min Rain = 0
KWA1 070822Z 01005KT 05/03 A3029 RMK A01 T00490034  RH  090%=      5-min Rain = 0
KWA1 070823Z 02005KT 05/04 A3029 RMK A01 T00490035  RH  090%=      5-min Rain = 0
KWA1 070824Z 02005KT 05/04 A3029 RMK A01 T00490035  RH  090%=      5-min Rain = 0
KWA1 070825Z 02005KT 05/03 A3029 RMK A01 T00490034  RH  090%=      5-min Rain = 0
KWA1 070826Z 02005KT 05/03 A3029 RMK A01 T00490034  RH  090%=      5-min Rain = 0
KWA1 070827Z 01004KT 05/04 A3029 RMK A01 T00490035  RH  090%=      5-min Rain = 0
KWA1 070828Z 02006KT 05/04 A3029 RMK A01 T00490035  RH  090%=      5-min Rain = 0
KWA1 070829Z 01006KT 05/04 A3029 RMK A01 T00490035  RH  090%=      5-min Rain = 0
KWA1 070830Z 02006KT 05/03 A3029 RMK A01 T00490034  RH  090%=      5-min Rain = 0
KWA1 070831Z 01005KT 05/03 A3029 RMK A01 T00490033  RH  089%=      5-min Rain = 0
KWA1 070832Z 01004KT 05/03 A3029 RMK A01 T00500033  RH  089%=      5-min Rain = 0
KWA1 070833Z 01005KT 05/03 A3029 RMK A01 T00500034  RH  089%=      5-min Rain = 0
KWA1 070834Z 01004KT 05/04 A3029 RMK A01 T00500035  RH  090%=      5-min Rain = 0
KWA1 070835Z 01006KT 05/03 A3029 RMK A01 T00500034  RH  090%=      5-min Rain = 0
KWA1 070836Z 01007KT 05/03 A3029 RMK A01 T00500034  RH  090%=      5-min Rain = 0
KWA1 070837Z 00007KT 05/03 A3029 RMK A01 T00500034  RH  089%=      5-min Rain = 0
KWA1 070838Z 01006KT 05/03 A3029 RMK A01 T00500033  RH  089%=      5-min Rain = 0
KWA1 070839Z 01006KT 05/03 A3029 RMK A01 T00500033  RH  089%=      5-min Rain = 0
KWA1 070840Z 01006KT 05/03 A3029 RMK A01 T00500033  RH  089%=      5-min Rain = 0
KWA1 070841Z 02006KT 05/03 A3029 RMK A01 T00500034  RH  089%=      5-min Rain = 0
KWA1 070842Z 02005KT 05/04 A3029 RMK A01 T00500035  RH  090%=      5-min Rain = 0
KWA1 070843Z 02006KT 05/03 A3029 RMK A01 T00500034  RH  090%=      5-min Rain = 0
KWA1 070844Z 02005KT 05/04 A3029 RMK A01 T00500035  RH  090%=      5-min Rain = 0
KWA1 070845Z 01006KT 05/04 A3029 RMK A01 T00500035  RH  090%=      5-min Rain = 0
KWA1 070846Z 01006KT 05/03 A3029 RMK A01 T00500034  RH  090%=      5-min Rain = 0
KWA1 070847Z 01008KT 05/04 A3029 RMK A01 T00500035  RH  090%=      5-min Rain = 0
KWA1 070848Z 02008KT 05/03 A3029 RMK A01 T00500034  RH  090%=      5-min Rain = 0
KWA1 070849Z 01006KT 05/03 A3029 RMK A01 T00500034  RH  090%=      5-min Rain = 0
KWA1 070850Z 02007KT 05/03 A3029 RMK A01 T00500034  RH  090%=      5-min Rain = 0
KWA1 070851Z 02006KT 05/04 A3029 RMK A01 T00500035  RH  090%=      5-min Rain = 0
KWA1 070852Z 02006KT 05/03 A3029 RMK A01 T00490034  RH  090%=      5-min Rain = 0
KWA1 070853Z 03006KT 05/03 A3029 RMK A01 T00500034  RH  090%=      5-min Rain = 0
KWA1 070854Z 03005KT 05/03 A3029 RMK A01 T00500034  RH  090%=      5-min Rain = 0
KWA1 070855Z 02007KT 05/04 A3029 RMK A01 T00490035  RH  090%=      5-min Rain = 0
KWA1 070856Z 03006KT 05/03 A3029 RMK A01 T00490034  RH  090%=      5-min Rain = 0
KWA1 070857Z 03005KT 05/04 A3029 RMK A01 T00500035  RH  090%=      5-min Rain = 0
KWA1 070858Z 03005KT 05/04 A3029 RMK A01 T00500036  RH  091%=      5-min Rain = 0
KWA1 070859Z 03008KT 05/04 A3029 RMK A01 T00490036  RH  091%=      5-min Rain = 0
KWA1 070900Z 01007KT 05/03 A3029 RMK A01 T00490034  RH  090%=      5-min Rain = 0
KWA1 070901Z 02007KT 05/03 A3029 RMK A01 T00490034  RH  090%=      5-min Rain = 0
KWA1 070902Z 01006KT 05/03 A3029 RMK A01 T00490033  RH  090%=      5-min Rain = 0
KWA1 070903Z 01006KT 05/03 A3029 RMK A01 T00480034  RH  090%=      5-min Rain = 0
KWA1 070904Z 01007KT 05/03 A3029 RMK A01 T00490034  RH  090%=      5-min Rain = 0
KWA1 070905Z 02006KT 05/03 A3029 RMK A01 T00480034  RH  091%=      5-min Rain = 0
KWA1 070906Z 01008KT 05/03 A3029 RMK A01 T00480034  RH  091%=      5-min Rain = 0
KWA1 070907Z 01008KT 05/03 A3029 RMK A01 T00480034  RH  090%=      5-min Rain = 0
KWA1 070908Z 01009KT 05/03 A3029 RMK A01 T00480033  RH  090%=      5-min Rain = 0
KWA1 070909Z 01008KT 05/03 A3029 RMK A01 T00480033  RH  090%=      5-min Rain = 0
KWA1 070910Z 02007KT 05/03 A3029 RMK A01 T00480034  RH  091%=      5-min Rain = 0
KWA1 070911Z 01006KT 05/04 A3029 RMK A01 T00480035  RH  091%=      5-min Rain = 0
KWA1 070912Z 01008KT 05/04 A3029 RMK A01 T00480036  RH  092%=      5-min Rain = 0
KWA1 070913Z 01006KT 05/04 A3029 RMK A01 T00480035  RH  091%=      5-min Rain = 0
KWA1 070914Z 01006KT 05/04 A3029 RMK A01 T00480035  RH  092%=      5-min Rain = 0
KWA1 070915Z 01006KT 05/04 A3029 RMK A01 T00480035  RH  092%=      5-min Rain = 0
KWA1 070916Z 01008KT 05/04 A3029 RMK A01 T00480036  RH  092%=      5-min Rain = 0
KWA1 070917Z 01005KT 05/04 A3029 RMK A01 T00470035  RH  092%=      5-min Rain = 0
KWA1 070918Z 01006KT 05/04 A3029 RMK A01 T00470035  RH  092%=      5-min Rain = 0
KWA1 070919Z 02006KT 05/04 A3029 RMK A01 T00470035  RH  092%=      5-min Rain = 0
KWA1 070920Z 03007KT 05/04 A3029 RMK A01 T00470035  RH  092%=      5-min Rain = 0
KWA1 070921Z 03006KT 05/04 A3029 RMK A01 T00470035  RH  092%=      5-min Rain = 0
KWA1 070922Z 03006KT 05/04 A3029 RMK A01 T00470035  RH  092%=      5-min Rain = 0
KWA1 070923Z 02008KT 05/04 A3029 RMK A01 T00470035  RH  092%=      5-min Rain = 0
KWA1 070924Z 02007KT 05/04 A3029 RMK A01 T00470035  RH  092%=      5-min Rain = 0
KWA1 070925Z 02007KT 05/04 A3029 RMK A01 T00460035  RH  092%=      5-min Rain = 0
KWA1 070926Z 02007KT 05/04 A3029 RMK A01 T00460035  RH  092%=      5-min Rain = 0
KWA1 070927Z 02006KT 05/04 A3029 RMK A01 T00460035  RH  092%=      5-min Rain = 0
KWA1 070928Z 03005KT 05/04 A3029 RMK A01 T00460035  RH  093%=      5-min Rain = 0
KWA1 070929Z 01005KT 05/04 A3029 RMK A01 T00460036  RH  093%=      5-min Rain = 0
KWA1 070930Z 01006KT 05/04 A3029 RMK A01 T00460036  RH  093%=      5-min Rain = 0
KWA1 070931Z 01007KT 05/04 A3029 RMK A01 T00460036  RH  093%=      5-min Rain = 0
KWA1 070932Z 01006KT 05/04 A3029 RMK A01 T00460036  RH  093%=      5-min Rain = 0
KWA1 070933Z 02006KT 05/04 A3029 RMK A01 T00460036  RH  093%=      5-min Rain = 0
KWA1 070934Z 02006KT 05/04 A3029 RMK A01 T00460036  RH  093%=      5-min Rain = 0
KWA1 070935Z 02005KT 05/04 A3029 RMK A01 T00460036  RH  093%=      5-min Rain = 0
KWA1 070936Z 02007KT 05/04 A3029 RMK A01 T00460037  RH  094%=      5-min Rain = 0
KWA1 070937Z 02007KT 05/04 A3029 RMK A01 T00460037  RH  093%=      5-min Rain = 0
KWA1 070938Z 02008KT 05/04 A3029 RMK A01 T00460036  RH  093%=      5-min Rain = 0
KWA1 070939Z 02007KT 05/04 A3029 RMK A01 T00460036  RH  093%=      5-min Rain = 0
KWA1 070940Z 02009KT 05/04 A3028 RMK A01 T00460036  RH  093%=      5-min Rain = 0
KWA1 070941Z 01007KT 05/04 A3028 RMK A01 T00450035  RH  093%=      5-min Rain = 0
KWA1 070942Z 02006KT 05/04 A3028 RMK A01 T00450036  RH  094%=      5-min Rain = 0
KWA1 070943Z 02005KT 05/04 A3028 RMK A01 T00450036  RH  094%=      5-min Rain = 0
KWA1 070944Z 01007KT 05/04 A3029 RMK A01 T00450036  RH  094%=      5-min Rain = 0
KWA1 070945Z 02005KT 05/04 A3029 RMK A01 T00450036  RH  094%=      5-min Rain = 0
KWA1 070946Z 01005KT 05/04 A3029 RMK A01 T00450036  RH  094%=      5-min Rain = 0
KWA1 070947Z 01004KT 05/04 A3029 RMK A01 T00450037  RH  094%=      5-min Rain = 0
KWA1 070948Z 01005KT 05/04 A3029 RMK A01 T00450037  RH  094%=      5-min Rain = 0
KWA1 070949Z 01007KT 05/04 A3029 RMK A01 T00450037  RH  095%=      5-min Rain = 0
KWA1 070950Z 01007KT 05/04 A3029 RMK A01 T00450037  RH  094%=      5-min Rain = 0
KWA1 070951Z 02007KT 05/04 A3029 RMK A01 T00450036  RH  094%=      5-min Rain = 0
KWA1 070952Z 02006KT 05/04 A3029 RMK A01 T00450036  RH  094%=      5-min Rain = 0
KWA1 070953Z 02006KT 05/04 A3029 RMK A01 T00450037  RH  094%=      5-min Rain = 0
KWA1 070954Z 02007KT 05/04 A3029 RMK A01 T00450037  RH  095%=      5-min Rain = 0
KWA1 070955Z 02007KT 05/04 A3029 RMK A01 T00450037  RH  094%=      5-min Rain = 0
KWA1 070956Z 02007KT 05/04 A3029 RMK A01 T00450037  RH  094%=      5-min Rain = 0
KWA1 070957Z 02007KT 04/04 A3029 RMK A01 T00440037  RH  095%=      5-min Rain = 0
KWA1 070958Z 01007KT 04/04 A3029 RMK A01 T00440037  RH  095%=      5-min Rain = 0
KWA1 070959Z 02007KT 04/04 A3029 RMK A01 T00440036  RH  095%=      5-min Rain = 0
KWA1 071000Z 02007KT 04/04 A3029 RMK A01 T00440037  RH  095%=      5-min Rain = 0
KWA1 071001Z 02007KT 04/04 A3029 RMK A01 T00440036  RH  095%=      5-min Rain = 0
KWA1 071002Z 02007KT 04/04 A3029 RMK A01 T00430037  RH  095%=      5-min Rain = 0
KWA1 071003Z 01007KT 04/04 A3029 RMK A01 T00430037  RH  095%=      5-min Rain = 0
KWA1 071004Z 02005KT 04/04 A3029 RMK A01 T00430037  RH  096%=      5-min Rain = 0
KWA1 071005Z 01005KT 04/04 A3029 RMK A01 T00440037  RH  096%=      5-min Rain = 0
KWA1 071006Z 02005KT 04/04 A3029 RMK A01 T00440038  RH  096%=      5-min Rain = 0
KWA1 071007Z 01005KT 04/04 A3029 RMK A01 T00440038  RH  096%=      5-min Rain = 0
KWA1 071008Z 00006KT 04/04 A3029 RMK A01 T00430038  RH  096%=      5-min Rain = 0
KWA1 071009Z 01006KT 04/04 A3029 RMK A01 T00430038  RH  096%=      5-min Rain = 0
KWA1 071010Z 01007KT 04/04 A3029 RMK A01 T00440038  RH  096%=      5-min Rain = 0
KWA1 071011Z 01008KT 04/04 A3029 RMK A01 T00430037  RH  096%=      5-min Rain = 0
KWA1 071012Z 01007KT 04/04 A3029 RMK A01 T00430037  RH  096%=      5-min Rain = 0
KWA1 071013Z 36007KT 04/04 A303 RMK A01 T00430037  RH  096%=      5-min Rain = 0
KWA1 071014Z 36005KT 04/04 A303 RMK A01 T00430037  RH  096%=      5-min Rain = 0
KWA1 071015Z 36007KT 04/04 A303 RMK A01 T00430037  RH  096%=      5-min Rain = 0
KWA1 071016Z 35007KT 04/04 A303 RMK A01 T00430038  RH  096%=      5-min Rain = 0
KWA1 071017Z 35008KT 04/04 A303 RMK A01 T00430038  RH  096%=      5-min Rain = 0
KWA1 071018Z 35008KT 04/04 A303 RMK A01 T00440038  RH  096%=      5-min Rain = 0
KWA1 071019Z 35008KT 04/04 A303 RMK A01 T00440038  RH  096%=      5-min Rain = 0
KWA1 071020Z 00007KT 04/04 A303 RMK A01 T00440038  RH  096%=      5-min Rain = 0
KWA1 071021Z 00007KT 04/04 A303 RMK A01 T00440039  RH  097%=      5-min Rain = 0
KWA1 071022Z 00007KT 04/04 A303 RMK A01 T00430038  RH  096%=      5-min Rain = 0
KWA1 071023Z 36007KT 04/04 A303 RMK A01 T00430037  RH  096%=      5-min Rain = 0
KWA1 071024Z 00006KT 04/04 A303 RMK A01 T00430037  RH  096%=      5-min Rain = 0
KWA1 071025Z 00006KT 04/04 A3031 RMK A01 T00430038  RH  096%=      5-min Rain = 0
KWA1 071026Z 00006KT 04/04 A3031 RMK A01 T00430038  RH  097%=      5-min Rain = 0
KWA1 071027Z 36007KT 04/04 A3031 RMK A01 T00430038  RH  097%=      5-min Rain = 0
KWA1 071028Z 36006KT 04/04 A3031 RMK A01 T00430039  RH  097%=      5-min Rain = 0
KWA1 071029Z 36006KT 04/04 A3031 RMK A01 T00430038  RH  097%=      5-min Rain = 0
KWA1 071030Z 01006KT 04/04 A3031 RMK A01 T00430039  RH  097%=      5-min Rain = 0
KWA1 071031Z 00006KT 04/04 A303 RMK A01 T00430038  RH  097%=      5-min Rain = 0
KWA1 071032Z 00008KT 04/04 A303 RMK A01 T00430038  RH  097%=      5-min Rain = 0
KWA1 071033Z 01009KT 04/04 A303 RMK A01 T00430039  RH  097%=      5-min Rain = 0
KWA1 071034Z 00008KT 04/04 A303 RMK A01 T00430039  RH  097%=      5-min Rain = 0
KWA1 071035Z 00007KT 04/04 A303 RMK A01 T00420038  RH  097%=      5-min Rain = 0
KWA1 071036Z 00006KT 04/04 A3031 RMK A01 T00420038  RH  097%=      5-min Rain = 0
KWA1 071037Z 00006KT 04/04 A3031 RMK A01 T00420038  RH  097%=      5-min Rain = 0
KWA1 071038Z 00006KT 04/04 A3031 RMK A01 T00420038  RH  097%=      5-min Rain = 0
KWA1 071039Z 36007KT 04/04 A3031 RMK A01 T00420038  RH  097%=      5-min Rain = 0
KWA1 071040Z 00007KT 04/04 A3031 RMK A01 T00420038  RH  097%=      5-min Rain = 0
KWA1 071041Z 01007KT 04/04 A303 RMK A01 T00420038  RH  098%=      5-min Rain = 0
KWA1 071042Z 01006KT 04/04 A303 RMK A01 T00420038  RH  098%=      5-min Rain = 0
KWA1 071043Z 01006KT 04/04 A303 RMK A01 T00420038  RH  098%=      5-min Rain = 0
KWA1 071044Z 00006KT 04/04 A303 RMK A01 T00420038  RH  098%=      5-min Rain = 0
KWA1 071045Z 01006KT 04/04 A303 RMK A01 T00420038  RH  098%=      5-min Rain = 0
KWA1 071046Z 00006KT 04/04 A303 RMK A01 T00420038  RH  098%=      5-min Rain = 0
KWA1 071047Z 01007KT 04/04 A303 RMK A01 T00420038  RH  098%=      5-min Rain = 0
KWA1 071048Z 00007KT 04/04 A303 RMK A01 T00420039  RH  098%=      5-min Rain = 0
KWA1 071049Z 01006KT 04/04 A303 RMK A01 T00420038  RH  098%=      5-min Rain = 0
KWA1 071050Z 01007KT 04/04 A303 RMK A01 T00420039  RH  098%=      5-min Rain = 0
KWA1 071051Z 00007KT 04/04 A303 RMK A01 T00420039  RH  098%=      5-min Rain = 0
KWA1 071052Z 01007KT 04/04 A303 RMK A01 T00420039  RH  098%=      5-min Rain = 0
KWA1 071053Z 01006KT 04/04 A303 RMK A01 T00420039  RH  098%=      5-min Rain = 0
KWA1 071054Z 01007KT 04/04 A303 RMK A01 T00420039  RH  098%=      5-min Rain = 0
KWA1 071055Z 00007KT 04/04 A303 RMK A01 T00420039  RH  098%=      5-min Rain = 0
KWA1 071056Z 01006KT 04/04 A303 RMK A01 T00420039  RH  098%=      5-min Rain = 0
KWA1 071057Z 00007KT 04/04 A303 RMK A01 T00410038  RH  098%=      5-min Rain = 0
KWA1 071058Z 00007KT 04/04 A303 RMK A01 T00410038  RH  098%=      5-min Rain = 0
KWA1 071059Z 00007KT 04/04 A303 RMK A01 T00410038  RH  098%=      5-min Rain = 0
KWA1 071100Z 36007KT 04/04 A303 RMK A01 T00420039  RH  098%=      5-min Rain = 0
KWA1 071101Z 01007KT 04/04 A303 RMK A01 T00410038  RH  098%=      5-min Rain = 0
KWA1 071102Z 01008KT 04/04 A303 RMK A01 T00410038  RH  098%=      5-min Rain = 0
KWA1 071103Z 01007KT 04/04 A303 RMK A01 T00410038  RH  098%=      5-min Rain = 0
KWA1 071104Z 01007KT 04/04 A303 RMK A01 T00410039  RH  098%=      5-min Rain = 0
KWA1 071105Z 00008KT 04/04 A303 RMK A01 T00410039  RH  098%=      5-min Rain = 0
KWA1 071106Z 00009KT 04/04 A303 RMK A01 T00410039  RH  098%=      5-min Rain = 0
KWA1 071107Z 01007KT 04/04 A303 RMK A01 T00410038  RH  098%=      5-min Rain = 0
KWA1 071108Z 00008KT 04/04 A303 RMK A01 T00410039  RH  098%=      5-min Rain = 0
KWA1 071109Z 00008KT 04/04 A303 RMK A01 T00410038  RH  098%=      5-min Rain = 0
KWA1 071110Z 00009KT 04/04 A303 RMK A01 T00410038  RH  098%=      5-min Rain = 0
KWA1 071111Z 00008KT 04/04 A303 RMK A01 T00400038  RH  098%=      5-min Rain = 0
KWA1 071112Z 01008KT 04/04 A303 RMK A01 T00410038  RH  098%=      5-min Rain = 0
KWA1 071113Z 01007KT 04/04 A303 RMK A01 T00400037  RH  098%=      5-min Rain = 0
KWA1 071114Z 01007KT 04/04 A303 RMK A01 T00400038  RH  098%=      5-min Rain = 0
KWA1 071115Z 02008KT 04/04 A303 RMK A01 T00400038  RH  098%=      5-min Rain = 0
KWA1 071116Z 02008KT 04/04 A303 RMK A01 T00400038  RH  098%=      5-min Rain = 0
KWA1 071117Z 02007KT 04/04 A303 RMK A01 T00410038  RH  098%=      5-min Rain = 0
KWA1 071118Z 02006KT 04/04 A303 RMK A01 T00400038  RH  098%=      5-min Rain = 0
KWA1 071119Z 02008KT 04/04 A303 RMK A01 T00400038  RH  098%=      5-min Rain = 0
KWA1 071120Z 02007KT 04/04 A303 RMK A01 T00400037  RH  098%=      5-min Rain = 0
KWA1 071121Z 01006KT 04/04 A303 RMK A01 T00400037  RH  098%=      5-min Rain = 0
KWA1 071122Z 02006KT 04/04 A303 RMK A01 T00400037  RH  098%=      5-min Rain = 0
KWA1 071123Z 02007KT 04/04 A303 RMK A01 T00400037  RH  098%=      5-min Rain = 0
KWA1 071124Z 02008KT 04/04 A303 RMK A01 T00400037  RH  098%=      5-min Rain = 0
KWA1 071125Z 01007KT 04/04 A303 RMK A01 T00400037  RH  098%=      5-min Rain = 0
KWA1 071126Z 01006KT 04/04 A303 RMK A01 T00400037  RH  098%=      5-min Rain = 0
KWA1 071127Z 02007KT 04/04 A303 RMK A01 T00400037  RH  098%=      5-min Rain = 0
KWA1 071128Z 02006KT 04/04 A303 RMK A01 T00400037  RH  098%=      5-min Rain = 0
KWA1 071129Z 02006KT 04/04 A303 RMK A01 T00400038  RH  098%=      5-min Rain = 0
KWA1 071130Z 02006KT 04/04 A303 RMK A01 T00400037  RH  098%=      5-min Rain = 0
KWA1 071131Z 02006KT 04/04 A303 RMK A01 T00400038  RH  098%=      5-min Rain = 0
KWA1 071132Z 02007KT 04/04 A303 RMK A01 T00400037  RH  098%=      5-min Rain = 0
KWA1 071133Z 02007KT 04/04 A303 RMK A01 T00400038  RH  098%=      5-min Rain = 0
KWA1 071134Z 02007KT 04/04 A303 RMK A01 T00400037  RH  098%=      5-min Rain = 0
KWA1 071135Z 02007KT 04/04 A303 RMK A01 T00400037  RH  098%=      5-min Rain = 0
KWA1 071136Z 02006KT 04/04 A303 RMK A01 T00390037  RH  098%=      5-min Rain = 0
KWA1 071137Z 02007KT 04/04 A303 RMK A01 T00390037  RH  098%=      5-min Rain = 0
KWA1 071138Z 02005KT 04/04 A303 RMK A01 T00400037  RH  099%=      5-min Rain = 0
KWA1 071139Z 02005KT 04/04 A303 RMK A01 T00400038  RH  099%=      5-min Rain = 0
KWA1 071140Z 02007KT 04/04 A303 RMK A01 T00400038  RH  099%=      5-min Rain = 0
KWA1 071141Z 02007KT 04/04 A303 RMK A01 T00400038  RH  099%=      5-min Rain = 0
KWA1 071142Z 02007KT 04/04 A303 RMK A01 T00400037  RH  099%=      5-min Rain = 0
KWA1 071143Z 02006KT 04/04 A303 RMK A01 T00390037  RH  099%=      5-min Rain = 0
KWA1 071144Z 01006KT 04/04 A303 RMK A01 T00390037  RH  099%=      5-min Rain = 0
KWA1 071145Z 01006KT 04/04 A303 RMK A01 T00390037  RH  099%=      5-min Rain = 0
KWA1 071146Z 02005KT 04/04 A303 RMK A01 T00390037  RH  099%=      5-min Rain = 0
KWA1 071147Z 02005KT 04/04 A303 RMK A01 T00400038  RH  099%=      5-min Rain = 0
KWA1 071148Z 01006KT 04/04 A303 RMK A01 T00390037  RH  099%=      5-min Rain = 0
KWA1 071149Z 01007KT 04/04 A303 RMK A01 T00400038  RH  099%=      5-min Rain = 0
KWA1 071150Z 01006KT 04/04 A3031 RMK A01 T00390037  RH  099%=      5-min Rain = 0
KWA1 071151Z 02006KT 04/04 A3031 RMK A01 T00390038  RH  099%=      5-min Rain = 0
KWA1 071152Z 01006KT 04/04 A3031 RMK A01 T00390037  RH  099%=      5-min Rain = 0
KWA1 071153Z 01007KT 04/04 A3031 RMK A01 T00390037  RH  099%=      5-min Rain = 0
KWA1 071154Z 02006KT 04/04 A3031 RMK A01 T00390037  RH  099%=      5-min Rain = 0
KWA1 071155Z 01006KT 04/04 A3031 RMK A01 T00390037  RH  099%=      5-min Rain = 0
KWA1 071156Z 01006KT 04/04 A3031 RMK A01 T00400038  RH  099%=      5-min Rain = 0
KWA1 071157Z 01006KT 04/04 A3031 RMK A01 T00400038  RH  099%=      5-min Rain = 0
KWA1 071158Z 01005KT 04/04 A3031 RMK A01 T00400038  RH  099%=      5-min Rain = 0
KWA1 071159Z 01006KT 04/04 A3031 RMK A01 T00390037  RH  099%=      5-min Rain = 0
KWA1 071200Z 00005KT 04/04 A3031 RMK A01 T00390037  RH  099%=      5-min Rain = 0
KWA1 071201Z 36005KT 04/04 A3031 RMK A01 T00390038  RH  099%=      5-min Rain = 0
KWA1 071202Z 00006KT 04/04 A3031 RMK A01 T00400038  RH  099%=      5-min Rain = 0
KWA1 071203Z 00005KT 04/04 A3031 RMK A01 T00400038  RH  099%=      5-min Rain = 0
KWA1 071204Z 01005KT 04/04 A3031 RMK A01 T00400038  RH  099%=      5-min Rain = 0
KWA1 071205Z 01005KT 04/04 A3031 RMK A01 T00400038  RH  099%=      5-min Rain = 0
KWA1 071206Z 00005KT 04/04 A3031 RMK A01 T00400038  RH  099%=      5-min Rain = 0
KWA1 071207Z 01004KT 04/04 A3031 RMK A01 T00400038  RH  099%=      5-min Rain = 0
KWA1 071208Z 01006KT 04/04 A3031 RMK A01 T00400038  RH  099%=      5-min Rain = 0
KWA1 071209Z 00006KT 04/04 A3031 RMK A01 T00400038  RH  099%=      5-min Rain = 0
KWA1 071210Z 01004KT 04/04 A3031 RMK A01 T00400038  RH  099%=      5-min Rain = 0
KWA1 071211Z 00006KT 04/04 A3031 RMK A01 T00400038  RH  099%=      5-min Rain = 0
KWA1 071212Z 01006KT 04/04 A3031 RMK A01 T00400038  RH  099%=      5-min Rain = 0
KWA1 071213Z 01005KT 04/04 A3031 RMK A01 T00400038  RH  099%=      5-min Rain = 0
KWA1 071214Z 00006KT 04/04 A3031 RMK A01 T00400038  RH  099%=      5-min Rain = 0
KWA1 071215Z 00007KT 04/04 A3031 RMK A01 T00400038  RH  099%=      5-min Rain = 0
KWA1 071216Z 36006KT 04/04 A3031 RMK A01 T00400038  RH  099%=      5-min Rain = 0
KWA1 071217Z 36006KT 04/04 A3031 RMK A01 T00400038  RH  099%=      5-min Rain = 0
KWA1 071218Z 36006KT 04/04 A3031 RMK A01 T00400038  RH  099%=      5-min Rain = 0
KWA1 071219Z 01007KT 04/04 A3031 RMK A01 T00410039  RH  099%=      5-min Rain = 0
KWA1 071220Z 00008KT 04/04 A3031 RMK A01 T00400038  RH  098%=      5-min Rain = 0
KWA1 071221Z 00007KT 04/04 A3031 RMK A01 T00400038  RH  098%=      5-min Rain = 0
KWA1 071222Z 01007KT 04/04 A3031 RMK A01 T00400037  RH  098%=      5-min Rain = 0
KWA1 071223Z 01007KT 04/04 A3031 RMK A01 T00400037  RH  098%=      5-min Rain = 0
KWA1 071224Z 01006KT 04/04 A3031 RMK A01 T00400038  RH  098%=      5-min Rain = 0
KWA1 071225Z 01006KT 04/04 A3032 RMK A01 T00400038  RH  098%=      5-min Rain = 0
KWA1 071226Z 01006KT 04/04 A3032 RMK A01 T00400038  RH  098%=      5-min Rain = 0
KWA1 071227Z 01006KT 04/04 A3031 RMK A01 T00400038  RH  098%=      5-min Rain = 0
KWA1 071228Z 01007KT 04/04 A3031 RMK A01 T00400038  RH  098%=      5-min Rain = 0
KWA1 071229Z 01007KT 04/04 A3031 RMK A01 T00400038  RH  098%=      5-min Rain = 0
KWA1 071230Z 01005KT 04/04 A3031 RMK A01 T00400038  RH  098%=      5-min Rain = 0
KWA1 071231Z 01005KT 04/04 A3031 RMK A01 T00400038  RH  098%=      5-min Rain = 0
KWA1 071232Z 01006KT 04/04 A3031 RMK A01 T00400038  RH  098%=      5-min Rain = 0
KWA1 071233Z 01006KT 04/04 A3031 RMK A01 T00400038  RH  098%=      5-min Rain = 0
KWA1 071234Z 01007KT 04/04 A3031 RMK A01 T00400038  RH  098%=      5-min Rain = 0
KWA1 071235Z 00007KT 04/04 A3031 RMK A01 T00400038  RH  098%=      5-min Rain = 0
KWA1 071236Z 00008KT 04/04 A3031 RMK A01 T00400038  RH  098%=      5-min Rain = 0
KWA1 071237Z 00008KT 04/04 A3031 RMK A01 T00400038  RH  098%=      5-min Rain = 0
KWA1 071238Z 00008KT 04/04 A3031 RMK A01 T00400037  RH  098%=      5-min Rain = 0
KWA1 071239Z 01008KT 04/04 A3031 RMK A01 T00400038  RH  098%=      5-min Rain = 0
KWA1 071240Z 01008KT 04/04 A3031 RMK A01 T00400037  RH  098%=      5-min Rain = 0
KWA1 071241Z 01008KT 04/04 A3031 RMK A01 T00400037  RH  098%=      5-min Rain = 0
KWA1 071242Z 01008KT 04/04 A3031 RMK A01 T00390037  RH  098%=      5-min Rain = 0
KWA1 071243Z 01007KT 04/04 A3031 RMK A01 T00390037  RH  098%=      5-min Rain = 0
KWA1 071244Z 01007KT 04/04 A3031 RMK A01 T00400037  RH  098%=      5-min Rain = 0
KWA1 071245Z 01008KT 04/04 A3031 RMK A01 T00390037  RH  098%=      5-min Rain = 0
KWA1 071246Z 01008KT 04/04 A3031 RMK A01 T00390037  RH  098%=      5-min Rain = 0
KWA1 071247Z 01008KT 04/04 A3031 RMK A01 T00390036  RH  098%=      5-min Rain = 0
KWA1 071248Z 01007KT 04/04 A3031 RMK A01 T00390036  RH  098%=      5-min Rain = 0
KWA1 071249Z 01005KT 04/04 A3031 RMK A01 T00380036  RH  098%=      5-min Rain = 0
KWA1 071250Z 01005KT 04/04 A3031 RMK A01 T00390036  RH  099%=      5-min Rain = 0
KWA1 071251Z 02006KT 04/04 A3031 RMK A01 T00390037  RH  099%=      5-min Rain = 0
KWA1 071252Z 02007KT 04/04 A3031 RMK A01 T00390037  RH  099%=      5-min Rain = 0
KWA1 071253Z 02006KT 04/04 A3031 RMK A01 T00390036  RH  098%=      5-min Rain = 0
KWA1 071254Z 02005KT 04/04 A3031 RMK A01 T00380036  RH  098%=      5-min Rain = 0
KWA1 071255Z 02006KT 04/04 A3031 RMK A01 T00380036  RH  098%=      5-min Rain = 0
KWA1 071256Z 03007KT 04/04 A3031 RMK A01 T00380036  RH  098%=      5-min Rain = 0
KWA1 071257Z 03007KT 04/04 A3031 RMK A01 T00380036  RH  098%=      5-min Rain = 0
KWA1 071258Z 02006KT 04/04 A303 RMK A01 T00380036  RH  098%=      5-min Rain = 0
KWA1 071259Z 03006KT 04/04 A303 RMK A01 T00380036  RH  098%=      5-min Rain = 0
KWA1 071300Z 03006KT 04/04 A303 RMK A01 T00380036  RH  098%=      5-min Rain = 0
KWA1 071301Z 03008KT 04/04 A303 RMK A01 T00380036  RH  098%=      5-min Rain = 0
KWA1 071302Z 03006KT 04/04 A303 RMK A01 T00380035  RH  098%=      5-min Rain = 0
KWA1 071303Z 03006KT 04/04 A303 RMK A01 T00380035  RH  098%=      5-min Rain = 0
KWA1 071304Z 02005KT 04/04 A303 RMK A01 T00380035  RH  098%=      5-min Rain = 0
KWA1 071305Z 03005KT 04/04 A303 RMK A01 T00370035  RH  098%=      5-min Rain = 0
KWA1 071306Z 04005KT 04/04 A303 RMK A01 T00380035  RH  098%=      5-min Rain = 0
KWA1 071307Z 03006KT 04/04 A303 RMK A01 T00380035  RH  098%=      5-min Rain = 0
KWA1 071308Z 03005KT 04/04 A303 RMK A01 T00380035  RH  098%=      5-min Rain = 0
KWA1 071309Z 03006KT 04/04 A303 RMK A01 T00380035  RH  098%=      5-min Rain = 0
KWA1 071310Z 03006KT 04/04 A303 RMK A01 T00380036  RH  098%=      5-min Rain = 0
KWA1 071311Z 04006KT 04/04 A303 RMK A01 T00380035  RH  098%=      5-min Rain = 0
KWA1 071312Z 03005KT 04/04 A303 RMK A01 T00380036  RH  099%=      5-min Rain = 0
KWA1 071313Z 04006KT 04/04 A303 RMK A01 T00380036  RH  099%=      5-min Rain = 0
KWA1 071314Z 03007KT 04/04 A303 RMK A01 T00380035  RH  099%=      5-min Rain = 0
KWA1 071315Z 04006KT 04/04 A303 RMK A01 T00370035  RH  099%=      5-min Rain = 0
KWA1 071316Z 03006KT 04/04 A303 RMK A01 T00370035  RH  099%=      5-min Rain = 0
KWA1 071317Z 03006KT 04/04 A303 RMK A01 T00370035  RH  099%=      5-min Rain = 0
KWA1 071318Z 04006KT 04/04 A303 RMK A01 T00370035  RH  099%=      5-min Rain = 0
KWA1 071319Z 03005KT 04/04 A303 RMK A01 T00370035  RH  099%=      5-min Rain = 0
KWA1 071320Z 03006KT 04/04 A303 RMK A01 T00380036  RH  099%=      5-min Rain = 0
KWA1 071321Z 03006KT 04/04 A303 RMK A01 T00380036  RH  099%=      5-min Rain = 0
KWA1 071322Z 04005KT 04/04 A303 RMK A01 T00380036  RH  099%=      5-min Rain = 0
KWA1 071323Z 04006KT 04/04 A303 RMK A01 T00380036  RH  099%=      5-min Rain = 0
KWA1 071324Z 04006KT 04/04 A303 RMK A01 T00380036  RH  099%=      5-min Rain = 0
KWA1 071325Z 03006KT 04/04 A303 RMK A01 T00380036  RH  099%=      5-min Rain = 0
KWA1 071326Z 04006KT 04/04 A303 RMK A01 T00380036  RH  099%=      5-min Rain = 0
KWA1 071327Z 04006KT 04/04 A303 RMK A01 T00380036  RH  099%=      5-min Rain = 0.01
KWA1 071328Z 04006KT 04/04 A303 RMK A01 T00380036  RH  099%=      5-min Rain = 0
KWA1 071329Z 04006KT 04/04 A303 RMK A01 T00380036  RH  099%=      5-min Rain = 0
KWA1 071330Z 04005KT 04/04 A303 RMK A01 T00370035  RH  099%=      5-min Rain = 0
KWA1 071331Z 05005KT 04/04 A303 RMK A01 T00370035  RH  099%=      5-min Rain = 0
KWA1 071332Z 05005KT 04/04 A303 RMK A01 T00370035  RH  099%=      5-min Rain = 0
KWA1 071333Z 05004KT 04/04 A303 RMK A01 T00380036  RH  099%=      5-min Rain = 0
KWA1 071334Z 05005KT 04/04 A303 RMK A01 T00380036  RH  099%=      5-min Rain = 0
KWA1 071335Z 05006KT 04/04 A303 RMK A01 T00380036  RH  099%=      5-min Rain = 0
KWA1 071336Z 05006KT 04/04 A303 RMK A01 T00380036  RH  099%=      5-min Rain = 0
KWA1 071337Z 05007KT 04/04 A303 RMK A01 T00380036  RH  099%=      5-min Rain = 0.01
KWA1 071338Z 05007KT 04/04 A303 RMK A01 T00370036  RH  099%=      5-min Rain = 0
KWA1 071339Z 05007KT 04/04 A303 RMK A01 T00370035  RH  099%=      5-min Rain = 0
KWA1 071340Z 05006KT 04/04 A303 RMK A01 T00370035  RH  099%=      5-min Rain = 0
KWA1 071341Z 05007KT 04/04 A303 RMK A01 T00370035  RH  099%=      5-min Rain = 0
KWA1 071342Z 05006KT 04/04 A303 RMK A01 T00370035  RH  099%=      5-min Rain = 0
KWA1 071343Z 05005KT 04/04 A303 RMK A01 T00370035  RH  099%=      5-min Rain = 0
KWA1 071344Z 05006KT 04/04 A303 RMK A01 T00370036  RH  099%=      5-min Rain = 0.01
KWA1 071345Z 04007KT 04/04 A303 RMK A01 T00380036  RH  099%=      5-min Rain = 0
KWA1 071346Z 04007KT 04/04 A3031 RMK A01 T00370036  RH  099%=      5-min Rain = 0
KWA1 071347Z 04007KT 04/04 A3031 RMK A01 T00370035  RH  099%=      5-min Rain = 0
KWA1 071348Z 04007KT 04/04 A3031 RMK A01 T00370035  RH  099%=      5-min Rain = 0
KWA1 071349Z 04007KT 04/03 A3031 RMK A01 T00370034  RH  099%=      5-min Rain = 0
KWA1 071350Z 04007KT 04/04 A3031 RMK A01 T00370035  RH  099%=      5-min Rain = 0
KWA1 071351Z 03007KT 04/04 A3031 RMK A01 T00370035  RH  099%=      5-min Rain = 0.01
KWA1 071352Z 03006KT 04/04 A3031 RMK A01 T00370035  RH  099%=      5-min Rain = 0
KWA1 071353Z 03006KT 04/04 A3031 RMK A01 T00370035  RH  099%=      5-min Rain = 0
KWA1 071354Z 04006KT 04/04 A3031 RMK A01 T00380036  RH  099%=      5-min Rain = 0.01
KWA1 071355Z 04006KT 04/04 A303 RMK A01 T00380036  RH  099%=      5-min Rain = 0
KWA1 071356Z 04006KT 04/04 A303 RMK A01 T00380035  RH  099%=      5-min Rain = 0
KWA1 071357Z 04006KT 04/04 A303 RMK A01 T00370035  RH  099%=      5-min Rain = 0
KWA1 071358Z 04005KT 04/04 A303 RMK A01 T00380036  RH  099%=      5-min Rain = 0
KWA1 071359Z 04006KT 04/04 A303 RMK A01 T00370036  RH  099%=      5-min Rain = 0.01
KWA1 071400Z 04007KT 04/04 A3031 RMK A01 T00380036  RH  099%=      5-min Rain = 0
KWA1 071401Z 04006KT 04/04 A3031 RMK A01 T00380036  RH  099%=      5-min Rain = 0
KWA1 071402Z 04006KT 04/04 A3031 RMK A01 T00380036  RH  099%=      5-min Rain = 0.01
KWA1 071403Z 04007KT 04/04 A3031 RMK A01 T00380036  RH  099%=      5-min Rain = 0
KWA1 071404Z 04006KT 04/04 A3031 RMK A01 T00380036  RH  099%=      5-min Rain = 0
KWA1 071405Z 04006KT 04/04 A3031 RMK A01 T00380036  RH  099%=      5-min Rain = 0
KWA1 071406Z 04005KT 04/04 A3031 RMK A01 T00380036  RH  099%=      5-min Rain = 0.01
KWA1 071407Z 03005KT 04/04 A3031 RMK A01 T00380036  RH  099%=      5-min Rain = 0
KWA1 071408Z 03005KT 04/04 A3031 RMK A01 T00380036  RH  099%=      5-min Rain = 0
KWA1 071409Z 03005KT 04/04 A3031 RMK A01 T00380036  RH  099%=      5-min Rain = 0
KWA1 071410Z 04006KT 04/04 A3031 RMK A01 T00370036  RH  099%=      5-min Rain = 0
KWA1 071411Z 03005KT 04/04 A3031 RMK A01 T00380036  RH  099%=      5-min Rain = 0.01
KWA1 071412Z 04006KT 04/04 A3031 RMK A01 T00380036  RH  099%=      5-min Rain = 0
KWA1 071413Z 04006KT 04/04 A3031 RMK A01 T00380036  RH  099%=      5-min Rain = 0
KWA1 071414Z 04006KT 04/04 A3031 RMK A01 T00370035  RH  099%=      5-min Rain = 0
KWA1 071415Z 04006KT 04/04 A3032 RMK A01 T00370035  RH  099%=      5-min Rain = 0.01
KWA1 071416Z 03005KT 04/03 A3032 RMK A01 T00360034  RH  099%=      5-min Rain = 0
KWA1 071417Z 03005KT 04/03 A3032 RMK A01 T00360034  RH  099%=      5-min Rain = 0
KWA1 071418Z 03005KT 04/03 A3032 RMK A01 T00360034  RH  099%=      5-min Rain = 0
KWA1 071419Z 02007KT 04/03 A3032 RMK A01 T00360034  RH  098%=      5-min Rain = 0
KWA1 071420Z 03006KT 04/03 A3032 RMK A01 T00360033  RH  098%=      5-min Rain = 0.01
KWA1 071421Z 02005KT 04/03 A3032 RMK A01 T00360034  RH  098%=      5-min Rain = 0
KWA1 071422Z 02006KT 04/03 A3032 RMK A01 T00360033  RH  098%=      5-min Rain = 0
KWA1 071423Z 02007KT 04/03 A3032 RMK A01 T00360034  RH  098%=      5-min Rain = 0
KWA1 071424Z 02006KT 04/03 A3033 RMK A01 T00360033  RH  098%=      5-min Rain = 0.01
KWA1 071425Z 02005KT 04/03 A3033 RMK A01 T00350033  RH  098%=      5-min Rain = 0
KWA1 071426Z 00005KT 04/03 A3033 RMK A01 T00360033  RH  098%=      5-min Rain = 0
KWA1 071427Z 01005KT 04/03 A3033 RMK A01 T00360033  RH  098%=      5-min Rain = 0
KWA1 071428Z 00006KT 04/03 A3033 RMK A01 T00360034  RH  098%=      5-min Rain = 0
KWA1 071429Z 00006KT 04/03 A3033 RMK A01 T00360033  RH  098%=      5-min Rain = 0.01
KWA1 071430Z 00007KT 04/03 A3033 RMK A01 T00350033  RH  098%=      5-min Rain = 0
KWA1 071431Z 01007KT 04/03 A3033 RMK A01 T00350033  RH  098%=      5-min Rain = 0
KWA1 071432Z 36006KT 04/03 A3033 RMK A01 T00350033  RH  098%=      5-min Rain = 0
KWA1 071433Z 00006KT 04/03 A3033 RMK A01 T00350033  RH  098%=      5-min Rain = 0
KWA1 071434Z 36006KT 04/03 A3033 RMK A01 T00360033  RH  098%=      5-min Rain = 0.01
KWA1 071435Z 36007KT 04/03 A3033 RMK A01 T00360033  RH  098%=      5-min Rain = 0
KWA1 071436Z 36008KT 04/03 A3033 RMK A01 T00360033  RH  098%=      5-min Rain = 0
KWA1 071437Z 00008KT 04/03 A3033 RMK A01 T00360033  RH  098%=      5-min Rain = 0
KWA1 071438Z 00008KT 04/03 A3033 RMK A01 T00360033  RH  098%=      5-min Rain = 0
KWA1 071439Z 00008KT 04/03 A3033 RMK A01 T00360033  RH  098%=      5-min Rain = 0
KWA1 071440Z 00008KT 04/03 A3033 RMK A01 T00360033  RH  098%=      5-min Rain = 0.01
KWA1 071441Z 00009KT 04/03 A3033 RMK A01 T00360033  RH  098%=      5-min Rain = 0
KWA1 071442Z 00009KT 04/03 A3033 RMK A01 T00360033  RH  098%=      5-min Rain = 0
KWA1 071443Z 00009KT 04/03 A3033 RMK A01 T00360033  RH  098%=      5-min Rain = 0
KWA1 071444Z 35008KT 04/03 A3033 RMK A01 T00360033  RH  098%=      5-min Rain = 0
KWA1 071445Z 36009KT 04/03 A3033 RMK A01 T00360033  RH  098%=      5-min Rain = 0
KWA1 071446Z 00008KT 04/03 A3033 RMK A01 T00360034  RH  098%=      5-min Rain = 0.01
KWA1 071447Z 00008KT 04/03 A3033 RMK A01 T00360034  RH  098%=      5-min Rain = 0
KWA1 071448Z 00008KT 04/03 A3033 RMK A01 T00360033  RH  098%=      5-min Rain = 0
KWA1 071449Z 01008KT 04/03 A3033 RMK A01 T00360033  RH  098%=      5-min Rain = 0
KWA1 071450Z 01010KT 04/03 A3033 RMK A01 T00360033  RH  098%=      5-min Rain = 0
KWA1 071451Z 00010KT 04/03 A3033 RMK A01 T00360033  RH  098%=      5-min Rain = 0.01
KWA1 071452Z 01008KT 04/03 A3033 RMK A01 T00360033  RH  098%=      5-min Rain = 0
KWA1 071453Z 01006KT 04/03 A3033 RMK A01 T00360033  RH  098%=      5-min Rain = 0
KWA1 071454Z 00006KT 04/03 A3033 RMK A01 T00360033  RH  098%=      5-min Rain = 0
KWA1 071455Z 01005KT 04/03 A3033 RMK A01 T00360034  RH  098%=      5-min Rain = 0
KWA1 071456Z 01007KT 04/03 A3033 RMK A01 T00360034  RH  098%=      5-min Rain = 0
KWA1 071457Z 01007KT 04/03 A3034 RMK A01 T00360033  RH  098%=      5-min Rain = 0.01
KWA1 071458Z 01006KT 04/03 A3034 RMK A01 T00360033  RH  098%=      5-min Rain = 0
KWA1 071459Z 01007KT 04/03 A3034 RMK A01 T00360033  RH  098%=      5-min Rain = 0
KWA1 071500Z 01007KT 04/03 A3034 RMK A01 T00360033  RH  098%=      5-min Rain = 0
KWA1 071501Z 01007KT 04/03 A3033 RMK A01 T00360033  RH  098%=      5-min Rain = 0
KWA1 071502Z 01007KT 04/03 A3033 RMK A01 T00360033  RH  098%=      5-min Rain = 0.01
KWA1 071503Z 01006KT 04/03 A3033 RMK A01 T00360033  RH  098%=      5-min Rain = 0
KWA1 071504Z 00006KT 04/03 A3033 RMK A01 T00360034  RH  098%=      5-min Rain = 0
KWA1 071505Z 00006KT 04/03 A3034 RMK A01 T00360033  RH  098%=      5-min Rain = 0
KWA1 071506Z 00006KT 04/03 A3034 RMK A01 T00360034  RH  098%=      5-min Rain = 0.01
KWA1 071507Z 00006KT 04/03 A3034 RMK A01 T00360033  RH  098%=      5-min Rain = 0
KWA1 071508Z 00006KT 04/03 A3034 RMK A01 T00360033  RH  098%=      5-min Rain = 0
KWA1 071509Z 36006KT 04/03 A3034 RMK A01 T00360033  RH  098%=      5-min Rain = 0
KWA1 071510Z 01006KT 04/03 A3034 RMK A01 T00360033  RH  098%=      5-min Rain = 0.01
KWA1 071511Z 01006KT 04/03 A3034 RMK A01 T00360034  RH  098%=      5-min Rain = 0
KWA1 071512Z 01007KT 04/03 A3034 RMK A01 T00360033  RH  098%=      5-min Rain = 0
KWA1 071513Z 02007KT 04/03 A3034 RMK A01 T00360033  RH  098%=      5-min Rain = 0
KWA1 071514Z 02007KT 04/03 A3034 RMK A01 T00360033  RH  098%=      5-min Rain = 0
KWA1 071515Z 02007KT 04/03 A3034 RMK A01 T00350032  RH  098%=      5-min Rain = 0.01
KWA1 071516Z 01007KT 04/03 A3034 RMK A01 T00350032  RH  098%=      5-min Rain = 0
KWA1 071517Z 01007KT 04/03 A3034 RMK A01 T00350032  RH  098%=      5-min Rain = 0
KWA1 071518Z 01008KT 04/03 A3034 RMK A01 T00360033  RH  098%=      5-min Rain = 0
KWA1 071519Z 01008KT 04/03 A3034 RMK A01 T00360033  RH  098%=      5-min Rain = 0.01
KWA1 071520Z 01008KT 04/03 A3034 RMK A01 T00360033  RH  098%=      5-min Rain = 0
KWA1 071521Z 01009KT 04/03 A3034 RMK A01 T00350032  RH  098%=      5-min Rain = 0
KWA1 071522Z 01007KT 04/03 A3034 RMK A01 T00360032  RH  098%=      5-min Rain = 0
KWA1 071523Z 01006KT 04/03 A3034 RMK A01 T00370033  RH  098%=      5-min Rain = 0
KWA1 071524Z 01006KT 04/03 A3034 RMK A01 T00370034  RH  098%=      5-min Rain = 0.01
KWA1 071525Z 02008KT 04/03 A3034 RMK A01 T00370033  RH  098%=      5-min Rain = 0
KWA1 071526Z 01007KT 04/03 A3034 RMK A01 T00370033  RH  098%=      5-min Rain = 0
KWA1 071527Z 01006KT 04/03 A3034 RMK A01 T00360033  RH  098%=      5-min Rain = 0
KWA1 071528Z 01007KT 04/03 A3034 RMK A01 T00360033  RH  098%=      5-min Rain = 0
KWA1 071529Z 01007KT 04/03 A3034 RMK A01 T00360033  RH  098%=      5-min Rain = 0.01
KWA1 071530Z 02007KT 04/03 A3034 RMK A01 T00360032  RH  098%=      5-min Rain = 0
KWA1 071531Z 02006KT 04/03 A3035 RMK A01 T00360033  RH  098%=      5-min Rain = 0
KWA1 071532Z 02005KT 04/03 A3035 RMK A01 T00360033  RH  098%=      5-min Rain = 0
KWA1 071533Z 02006KT 04/03 A3035 RMK A01 T00360033  RH  098%=      5-min Rain = 0
KWA1 071534Z 01006KT 04/03 A3035 RMK A01 T00360033  RH  098%=      5-min Rain = 0.01
KWA1 071535Z 01006KT 04/03 A3035 RMK A01 T00360033  RH  098%=      5-min Rain = 0
KWA1 071536Z 01006KT 04/03 A3035 RMK A01 T00360033  RH  098%=      5-min Rain = 0
KWA1 071537Z 02006KT 04/03 A3035 RMK A01 T00360033  RH  098%=      5-min Rain = 0
KWA1 071538Z 02006KT 04/03 A3035 RMK A01 T00360033  RH  098%=      5-min Rain = 0.01
KWA1 071539Z 02006KT 04/03 A3035 RMK A01 T00360032  RH  098%=      5-min Rain = 0
KWA1 071540Z 03007KT 04/03 A3035 RMK A01 T00360032  RH  098%=      5-min Rain = 0
KWA1 071541Z 03006KT 04/03 A3035 RMK A01 T00360032  RH  098%=      5-min Rain = 0
KWA1 071542Z 03006KT 04/03 A3035 RMK A01 T00360032  RH  098%=      5-min Rain = 0.01
KWA1 071543Z 02005KT 04/03 A3035 RMK A01 T00360032  RH  098%=      5-min Rain = 0
KWA1 071544Z 02005KT 04/03 A3035 RMK A01 T00360033  RH  098%=      5-min Rain = 0
KWA1 071545Z 02005KT 04/03 A3035 RMK A01 T00360033  RH  098%=      5-min Rain = 0
KWA1 071546Z 02005KT 04/03 A3035 RMK A01 T00360033  RH  098%=      5-min Rain = 0.01
KWA1 071547Z 03006KT 04/03 A3035 RMK A01 T00360033  RH  098%=      5-min Rain = 0
KWA1 071548Z 02006KT 04/03 A3035 RMK A01 T00360033  RH  098%=      5-min Rain = 0
KWA1 071549Z 02004KT 04/03 A3035 RMK A01 T00360033  RH  098%=      5-min Rain = 0
KWA1 071550Z 03004KT 04/03 A3035 RMK A01 T00360033  RH  098%=      5-min Rain = 0.01
KWA1 071551Z 03005KT 04/03 A3035 RMK A01 T00360033  RH  098%=      5-min Rain = 0
KWA1 071552Z 03005KT 04/03 A3035 RMK A01 T00360033  RH  098%=      5-min Rain = 0
KWA1 071553Z 04006KT 04/03 A3035 RMK A01 T00360033  RH  098%=      5-min Rain = 0
KWA1 071554Z 03006KT 04/03 A3035 RMK A01 T00370034  RH  098%=      5-min Rain = 0.01
KWA1 071555Z 04006KT 04/03 A3035 RMK A01 T00370034  RH  098%=      5-min Rain = 0
KWA1 071556Z 04006KT 04/03 A3035 RMK A01 T00370034  RH  098%=      5-min Rain = 0
KWA1 071557Z 04005KT 04/03 A3035 RMK A01 T00370034  RH  098%=      5-min Rain = 0
KWA1 071558Z 04004KT 04/03 A3035 RMK A01 T00370034  RH  098%=      5-min Rain = 0
KWA1 071559Z 05005KT 04/03 A3035 RMK A01 T00370034  RH  098%=      5-min Rain = 0.01
KWA1 071600Z 04006KT 04/03 A3035 RMK A01 T00370034  RH  098%=      5-min Rain = 0
KWA1 071601Z 04006KT 04/03 A3035 RMK A01 T00370034  RH  098%=      5-min Rain = 0
KWA1 071602Z 04005KT 04/03 A3035 RMK A01 T00370034  RH  098%=      5-min Rain = 0
KWA1 071603Z 04007KT 04/04 A3035 RMK A01 T00370035  RH  098%=      5-min Rain = 0
KWA1 071604Z 04006KT 04/03 A3035 RMK A01 T00370034  RH  098%=      5-min Rain = 0.01
KWA1 071605Z 03006KT 04/03 A3035 RMK A01 T00370034  RH  098%=      5-min Rain = 0
KWA1 071606Z 03007KT 04/03 A3035 RMK A01 T00360034  RH  098%=      5-min Rain = 0
KWA1 071607Z 03006KT 04/03 A3035 RMK A01 T00370034  RH  098%=      5-min Rain = 0
KWA1 071608Z 03006KT 04/03 A3035 RMK A01 T00370034  RH  098%=      5-min Rain = 0.01
KWA1 071609Z 03006KT 04/03 A3035 RMK A01 T00370034  RH  098%=      5-min Rain = 0
KWA1 071610Z 03005KT 04/03 A3035 RMK A01 T00370034  RH  098%=      5-min Rain = 0
KWA1 071611Z 03005KT 04/04 A3035 RMK A01 T00370035  RH  098%=      5-min Rain = 0
KWA1 071612Z 03006KT 04/03 A3035 RMK A01 T00370034  RH  098%=      5-min Rain = 0
KWA1 071613Z 03007KT 04/03 A3035 RMK A01 T00370034  RH  098%=      5-min Rain = 0.01
KWA1 071614Z 03008KT 04/03 A3035 RMK A01 T00370034  RH  098%=      5-min Rain = 0
KWA1 071615Z 03008KT 04/03 A3035 RMK A01 T00360033  RH  098%=      5-min Rain = 0
KWA1 071616Z 04007KT 04/03 A3035 RMK A01 T00360032  RH  098%=      5-min Rain = 0
KWA1 071617Z 03008KT 04/03 A3035 RMK A01 T00360033  RH  098%=      5-min Rain = 0
KWA1 071618Z 04007KT 04/03 A3035 RMK A01 T00360033  RH  098%=      5-min Rain = 0.01
KWA1 071619Z 04007KT 04/03 A3034 RMK A01 T00370033  RH  098%=      5-min Rain = 0
KWA1 071620Z 03008KT 04/03 A3034 RMK A01 T00370033  RH  098%=      5-min Rain = 0
KWA1 071621Z 03008KT 04/03 A3034 RMK A01 T00370034  RH  098%=      5-min Rain = 0
KWA1 071622Z 04008KT 04/03 A3034 RMK A01 T00370033  RH  098%=      5-min Rain = 0
KWA1 071623Z 04009KT 04/03 A3034 RMK A01 T00370033  RH  098%=      5-min Rain = 0
KWA1 071624Z 04008KT 04/03 A3034 RMK A01 T00370033  RH  098%=      5-min Rain = 0.01
KWA1 071625Z 04009KT 04/03 A3034 RMK A01 T00370033  RH  098%=      5-min Rain = 0
KWA1 071626Z 04007KT 04/03 A3034 RMK A01 T00360033  RH  097%=      5-min Rain = 0
KWA1 071627Z 04007KT 04/03 A3034 RMK A01 T00370033  RH  097%=      5-min Rain = 0
KWA1 071628Z 04008KT 04/03 A3034 RMK A01 T00370033  RH  097%=      5-min Rain = 0
KWA1 071629Z 04007KT 04/03 A3034 RMK A01 T00370033  RH  098%=      5-min Rain = 0
KWA1 071630Z 04007KT 04/03 A3034 RMK A01 T00370033  RH  097%=      5-min Rain = 0.01
KWA1 071631Z 04006KT 04/03 A3034 RMK A01 T00370033  RH  097%=      5-min Rain = 0
KWA1 071632Z 04005KT 04/03 A3034 RMK A01 T00370033  RH  097%=      5-min Rain = 0
KWA1 071633Z 04005KT 04/03 A3034 RMK A01 T00370033  RH  097%=      5-min Rain = 0
KWA1 071634Z 04006KT 04/03 A3034 RMK A01 T00370033  RH  097%=      5-min Rain = 0
KWA1 071635Z 04005KT 04/03 A3034 RMK A01 T00370033  RH  097%=      5-min Rain = 0.01
KWA1 071636Z 04005KT 04/03 A3034 RMK A01 T00370033  RH  097%=      5-min Rain = 0
KWA1 071637Z 05005KT 04/03 A3034 RMK A01 T00370033  RH  097%=      5-min Rain = 0
KWA1 071638Z 04005KT 04/03 A3034 RMK A01 T00370034  RH  097%=      5-min Rain = 0
KWA1 071639Z 04005KT 04/03 A3034 RMK A01 T00380034  RH  098%=      5-min Rain = 0.01
KWA1 071640Z 05005KT 04/03 A3034 RMK A01 T00380034  RH  098%=      5-min Rain = 0
KWA1 071641Z 04006KT 04/04 A3034 RMK A01 T00380035  RH  098%=      5-min Rain = 0
KWA1 071642Z 05006KT 04/03 A3033 RMK A01 T00380034  RH  098%=      5-min Rain = 0
KWA1 071643Z 05007KT 04/03 A3033 RMK A01 T00380034  RH  098%=      5-min Rain = 0
KWA1 071644Z 04008KT 04/03 A3033 RMK A01 T00380034  RH  098%=      5-min Rain = 0.01
KWA1 071645Z 04008KT 04/03 A3033 RMK A01 T00370033  RH  097%=      5-min Rain = 0
KWA1 071646Z 04008KT 04/03 A3033 RMK A01 T00370033  RH  097%=      5-min Rain = 0
KWA1 071647Z 04007KT 04/03 A3033 RMK A01 T00370033  RH  097%=      5-min Rain = 0
KWA1 071648Z 05005KT 04/03 A3033 RMK A01 T00370034  RH  098%=      5-min Rain = 0
KWA1 071649Z 06006KT 04/03 A3033 RMK A01 T00380034  RH  098%=      5-min Rain = 0.01
KWA1 071650Z 06007KT 04/04 A3033 RMK A01 T00380035  RH  098%=      5-min Rain = 0
KWA1 071651Z 06007KT 04/03 A3033 RMK A01 T00380034  RH  098%=      5-min Rain = 0
KWA1 071652Z 06008KT 04/03 A3033 RMK A01 T00380034  RH  098%=      5-min Rain = 0
KWA1 071653Z 06008KT 04/03 A3033 RMK A01 T00370034  RH  097%=      5-min Rain = 0
KWA1 071654Z 06008KT 04/03 A3033 RMK A01 T00370034  RH  098%=      5-min Rain = 0
KWA1 071655Z 06008KT 04/03 A3032 RMK A01 T00370033  RH  098%=      5-min Rain = 0
KWA1 071656Z 05007KT 04/03 A3032 RMK A01 T00370034  RH  098%=      5-min Rain = 0.01
KWA1 071657Z 05006KT 04/03 A3032 RMK A01 T00370033  RH  097%=      5-min Rain = 0
KWA1 071658Z 05008KT 04/03 A3032 RMK A01 T00370034  RH  098%=      5-min Rain = 0
KWA1 071659Z 05010KT 04/03 A3032 RMK A01 T00380034  RH  098%=      5-min Rain = 0
KWA1 071700Z 04009KT 04/03 A3032 RMK A01 T00370033  RH  097%=      5-min Rain = 0
KWA1 071701Z 04007KT 04/03 A3032 RMK A01 T00370033  RH  097%=      5-min Rain = 0.01
KWA1 071702Z 04007KT 04/03 A3032 RMK A01 T00370033  RH  097%=      5-min Rain = 0
KWA1 071703Z 04007KT 04/03 A3032 RMK A01 T00370033  RH  097%=      5-min Rain = 0
KWA1 071704Z 04006KT 04/03 A3033 RMK A01 T00370033  RH  097%=      5-min Rain = 0
KWA1 071705Z 03007KT 04/03 A3033 RMK A01 T00380034  RH  097%=      5-min Rain = 0.01
KWA1 071706Z 04006KT 04/03 A3032 RMK A01 T00370033  RH  097%=      5-min Rain = 0
KWA1 071707Z 04007KT 04/03 A3032 RMK A01 T00370033  RH  097%=      5-min Rain = 0
KWA1 071708Z 04006KT 04/03 A3032 RMK A01 T00380034  RH  097%=      5-min Rain = 0
KWA1 071709Z 04009KT 04/04 A3031 RMK A01 T00390035  RH  098%=      5-min Rain = 0
KWA1 071710Z 04009KT 04/04 A3031 RMK A01 T00380035  RH  097%=      5-min Rain = 0.01
KWA1 071711Z 04008KT 04/03 A3031 RMK A01 T00380034  RH  097%=      5-min Rain = 0
KWA1 071712Z 03007KT 04/03 A3031 RMK A01 T00370033  RH  097%=      5-min Rain = 0
KWA1 071713Z 04007KT 04/03 A3031 RMK A01 T00380034  RH  097%=      5-min Rain = 0
KWA1 071714Z 04006KT 04/03 A3031 RMK A01 T00370033  RH  097%=      5-min Rain = 0
KWA1 071715Z 04007KT 04/03 A3031 RMK A01 T00380034  RH  097%=      5-min Rain = 0.01
KWA1 071716Z 04008KT 04/03 A3031 RMK A01 T00370033  RH  097%=      5-min Rain = 0
KWA1 071717Z 05009KT 04/03 A3031 RMK A01 T00370033  RH  097%=      5-min Rain = 0
KWA1 071718Z 04008KT 04/03 A3031 RMK A01 T00370033  RH  097%=      5-min Rain = 0
KWA1 071719Z 04007KT 04/03 A3031 RMK A01 T00370033  RH  097%=      5-min Rain = 0
KWA1 071720Z 05008KT 04/03 A3031 RMK A01 T00380033  RH  097%=      5-min Rain = 0.01
KWA1 071721Z 05007KT 04/03 A3031 RMK A01 T00380033  RH  097%=      5-min Rain = 0
KWA1 071722Z 05008KT 04/03 A303 RMK A01 T00380033  RH  097%=      5-min Rain = 0
KWA1 071723Z 05008KT 04/03 A303 RMK A01 T00380033  RH  097%=      5-min Rain = 0
KWA1 071724Z 05009KT 04/03 A303 RMK A01 T00380033  RH  097%=      5-min Rain = 0
KWA1 071725Z 05009KT 04/03 A303 RMK A01 T00380033  RH  097%=      5-min Rain = 0
KWA1 071726Z 05010KT 04/03 A303 RMK A01 T00380033  RH  097%=      5-min Rain = 0.01
KWA1 071727Z 05008KT 04/03 A303 RMK A01 T00370033  RH  097%=      5-min Rain = 0
KWA1 071728Z 05008KT 04/03 A303 RMK A01 T00380033  RH  097%=      5-min Rain = 0
KWA1 071729Z 05008KT 04/03 A303 RMK A01 T00380033  RH  097%=      5-min Rain = 0
KWA1 071730Z 04008KT 04/03 A303 RMK A01 T00380033  RH  097%=      5-min Rain = 0
KWA1 071731Z 05009KT 04/03 A303 RMK A01 T00370033  RH  097%=      5-min Rain = 0
KWA1 071732Z 05009KT 04/03 A3029 RMK A01 T00380033  RH  097%=      5-min Rain = 0.01
KWA1 071733Z 04009KT 04/03 A3029 RMK A01 T00380034  RH  097%=      5-min Rain = 0
KWA1 071734Z 04010KT 04/03 A3029 RMK A01 T00380034  RH  097%=      5-min Rain = 0
KWA1 071735Z 04009KT 04/03 A3029 RMK A01 T00380034  RH  097%=      5-min Rain = 0
KWA1 071736Z 04008KT 04/03 A3029 RMK A01 T00380034  RH  097%=      5-min Rain = 0
KWA1 071737Z 04007KT 04/03 A3029 RMK A01 T00380034  RH  097%=      5-min Rain = 0
KWA1 071738Z 05007KT 04/04 A3029 RMK A01 T00390035  RH  097%=      5-min Rain = 0
KWA1 071739Z 05007KT 04/04 A3029 RMK A01 T00390036  RH  098%=      5-min Rain = 0.01
KWA1 071740Z 05008KT 04/04 A3029 RMK A01 T00390035  RH  097%=      5-min Rain = 0
KWA1 071741Z 05009KT 04/04 A3029 RMK A01 T00390035  RH  097%=      5-min Rain = 0
KWA1 071742Z 05008KT 04/04 A3028 RMK A01 T00390035  RH  097%=      5-min Rain = 0
KWA1 071743Z 05007KT 04/03 A3028 RMK A01 T00380034  RH  097%=      5-min Rain = 0
KWA1 071744Z 04006KT 04/04 A3028 RMK A01 T00390035  RH  098%=      5-min Rain = 0
KWA1 071745Z 04009KT 04/04 A3028 RMK A01 T00390035  RH  098%=      5-min Rain = 0.01
KWA1 071746Z 04009KT 04/04 A3028 RMK A01 T00390035  RH  097%=      5-min Rain = 0
KWA1 071747Z 04009KT 04/04 A3028 RMK A01 T00380035  RH  097%=      5-min Rain = 0
KWA1 071748Z 04008KT 04/04 A3028 RMK A01 T00390035  RH  097%=      5-min Rain = 0
KWA1 071749Z 05008KT 04/04 A3028 RMK A01 T00390035  RH  097%=      5-min Rain = 0.01
KWA1 071750Z 05007KT 04/04 A3028 RMK A01 T00390035  RH  098%=      5-min Rain = 0
KWA1 071751Z 04008KT 04/04 A3028 RMK A01 T00380035  RH  098%=      5-min Rain = 0
KWA1 071752Z 04008KT 04/04 A3028 RMK A01 T00390035  RH  098%=      5-min Rain = 0
KWA1 071753Z 04008KT 04/04 A3028 RMK A01 T00390035  RH  098%=      5-min Rain = 0.01
KWA1 071754Z 05007KT 04/04 A3028 RMK A01 T00390035  RH  098%=      5-min Rain = 0
KWA1 071755Z 05007KT 04/04 A3028 RMK A01 T00390036  RH  098%=      5-min Rain = 0
KWA1 071756Z 05008KT 04/04 A3028 RMK A01 T00390036  RH  098%=      5-min Rain = 0
KWA1 071757Z 05008KT 04/04 A3027 RMK A01 T00390036  RH  098%=      5-min Rain = 0.01
KWA1 071758Z 04009KT 04/04 A3027 RMK A01 T00390036  RH  098%=      5-min Rain = 0
KWA1 071759Z 05008KT 04/04 A3027 RMK A01 T00390036  RH  098%=      5-min Rain = 0
KWA1 071800Z 04008KT 04/04 A3027 RMK A01 T00390036  RH  098%=      5-min Rain = 0
KWA1 071801Z 04007KT 04/04 A3027 RMK A01 T00390036  RH  098%=      5-min Rain = 0
KWA1 071802Z 03008KT 04/04 A3027 RMK A01 T00400037  RH  098%=      5-min Rain = 0.01
KWA1 071803Z 03008KT 04/04 A3027 RMK A01 T00400037  RH  098%=      5-min Rain = 0
KWA1 071804Z 03007KT 04/04 A3027 RMK A01 T00390036  RH  098%=      5-min Rain = 0
KWA1 071805Z 03009KT 04/04 A3027 RMK A01 T00390036  RH  098%=      5-min Rain = 0
KWA1 071806Z 04009KT 04/04 A3027 RMK A01 T00390036  RH  098%=      5-min Rain = 0.01
KWA1 071807Z 03008KT 04/04 A3026 RMK A01 T00390036  RH  098%=      5-min Rain = 0
KWA1 071808Z 03009KT 04/04 A3026 RMK A01 T00390036  RH  098%=      5-min Rain = 0
KWA1 071809Z 04008KT 04/04 A3026 RMK A01 T00390036  RH  098%=      5-min Rain = 0
KWA1 071810Z 04010KT 04/04 A3026 RMK A01 T00390036  RH  098%=      5-min Rain = 0
KWA1 071811Z 04011KT 04/04 A3026 RMK A01 T00390036  RH  098%=      5-min Rain = 0.01
KWA1 071812Z 04011KT 04/04 A3026 RMK A01 T00390035  RH  098%=      5-min Rain = 0
KWA1 071813Z 04010KT 04/04 A3026 RMK A01 T00380035  RH  098%=      5-min Rain = 0
KWA1 071814Z 04008KT 04/04 A3025 RMK A01 T00390036  RH  098%=      5-min Rain = 0
KWA1 071815Z 04011KT 04/04 A3025 RMK A01 T00390036  RH  098%=      5-min Rain = 0.01
KWA1 071816Z 04010KT 04/04 A3025 RMK A01 T00400037  RH  098%=      5-min Rain = 0
KWA1 071817Z 04011KT 04/04 A3025 RMK A01 T00400036  RH  098%=      5-min Rain = 0
KWA1 071818Z 04010KT 04/04 A3025 RMK A01 T00400036  RH  098%=      5-min Rain = 0.01
KWA1 071819Z 04008KT 04/04 A3025 RMK A01 T00400037  RH  098%=      5-min Rain = 0
KWA1 071820Z 04010KT 04/04 A3025 RMK A01 T00410038  RH  098%=      5-min Rain = 0
KWA1 071821Z 04009KT 04/04 A3024 RMK A01 T00400037  RH  098%=      5-min Rain = 0
KWA1 071822Z 04011KT 04/04 A3024 RMK A01 T00400037  RH  098%=      5-min Rain = 0.01
KWA1 071823Z 04010KT 04/04 A3024 RMK A01 T00400037  RH  098%=      5-min Rain = 0
KWA1 071824Z 04012KT 04/04 A3024 RMK A01 T00400037  RH  098%=      5-min Rain = 0
KWA1 071825Z 04012KT 04/04 A3024 RMK A01 T00400037  RH  098%=      5-min Rain = 0
KWA1 071826Z 04012KT 04/04 A3023 RMK A01 T00400037  RH  098%=      5-min Rain = 0
KWA1 071827Z 05014KT 04/04 A3023 RMK A01 T00400037  RH  098%=      5-min Rain = 0.01
KWA1 071828Z 04011KT 04/04 A3023 RMK A01 T00400037  RH  098%=      5-min Rain = 0
KWA1 071829Z 05011KT 04/04 A3023 RMK A01 T00400037  RH  098%=      5-min Rain = 0
KWA1 071830Z 04013KT 04/04 A3023 RMK A01 T00410038  RH  098%=      5-min Rain = 0
KWA1 071831Z 04011KT 04/04 A3023 RMK A01 T00400037  RH  098%=      5-min Rain = 0
KWA1 071832Z 04012KT 04/04 A3023 RMK A01 T00410037  RH  098%=      5-min Rain = 0
KWA1 071833Z 04012KT 04/04 A3023 RMK A01 T00410038  RH  098%=      5-min Rain = 0.01
KWA1 071834Z 04012KT 04/04 A3022 RMK A01 T00410038  RH  098%=      5-min Rain = 0
KWA1 071835Z 04009KT 04/04 A3023 RMK A01 T00410038  RH  098%=      5-min Rain = 0
KWA1 071836Z 04009KT 04/04 A3023 RMK A01 T00410038  RH  098%=      5-min Rain = 0
KWA1 071837Z 05012KT 04/04 A3023 RMK A01 T00420039  RH  098%=      5-min Rain = 0
KWA1 071838Z 04010KT 04/04 A3023 RMK A01 T00410038  RH  098%=      5-min Rain = 0
KWA1 071839Z 04009KT 04/04 A3023 RMK A01 T00410038  RH  098%=      5-min Rain = 0
KWA1 071840Z 04011KT 04/04 A3023 RMK A01 T00410038  RH  098%=      5-min Rain = 0
KWA1 071841Z 05009KT 04/04 A3023 RMK A01 T00410038  RH  098%=      5-min Rain = 0.01
KWA1 071842Z 05007KT 04/04 A3024 RMK A01 T00410038  RH  098%=      5-min Rain = 0
KWA1 071843Z 05006KT 04/04 A3024 RMK A01 T00410038  RH  098%=      5-min Rain = 0
KWA1 071844Z 05008KT 04/04 A3024 RMK A01 T00410038  RH  098%=      5-min Rain = 0
KWA1 071845Z 06008KT 04/04 A3024 RMK A01 T00410038  RH  098%=      5-min Rain = 0
KWA1 071846Z 06010KT 04/04 A3024 RMK A01 T00410038  RH  098%=      5-min Rain = 0
KWA1 071847Z 06009KT 04/04 A3024 RMK A01 T00410038  RH  098%=      5-min Rain = 0
KWA1 071848Z 06009KT 04/04 A3024 RMK A01 T00410038  RH  098%=      5-min Rain = 0
KWA1 071849Z 07007KT 04/04 A3024 RMK A01 T00420039  RH  098%=      5-min Rain = 0
KWA1 071850Z 07010KT 04/04 A3024 RMK A01 T00430040  RH  098%=      5-min Rain = 0.01
KWA1 071851Z 07008KT 04/04 A3024 RMK A01 T00420039  RH  098%=      5-min Rain = 0
KWA1 071852Z 07010KT 04/04 A3024 RMK A01 T00430039  RH  098%=      5-min Rain = 0
KWA1 071853Z 07010KT 04/04 A3023 RMK A01 T00430039  RH  098%=      5-min Rain = 0
KWA1 071854Z 06011KT 04/04 A3023 RMK A01 T00430039  RH  098%=      5-min Rain = 0
KWA1 071855Z 07010KT 04/04 A3023 RMK A01 T00430039  RH  098%=      5-min Rain = 0
KWA1 071856Z 06008KT 04/04 A3023 RMK A01 T00430039  RH  098%=      5-min Rain = 0.01
KWA1 071857Z 07009KT 04/04 A3023 RMK A01 T00430039  RH  098%=      5-min Rain = 0
KWA1 071858Z 08008KT 04/04 A3024 RMK A01 T00430040  RH  098%=      5-min Rain = 0
KWA1 071859Z 08008KT 04/04 A3024 RMK A01 T00430040  RH  098%=      5-min Rain = 0
KWA1 071900Z 07010KT 04/04 A3024 RMK A01 T00430040  RH  098%=      5-min Rain = 0
KWA1 071901Z 07007KT 04/04 A3024 RMK A01 T00430040  RH  098%=      5-min Rain = 0
KWA1 071902Z 06009KT 04/04 A3024 RMK A01 T00430040  RH  098%=      5-min Rain = 0
KWA1 071903Z 06009KT 04/04 A3024 RMK A01 T00430039  RH  097%=      5-min Rain = 0
KWA1 071904Z 06009KT 04/04 A3024 RMK A01 T00430039  RH  097%=      5-min Rain = 0.01
KWA1 071905Z 07009KT 04/04 A3024 RMK A01 T00430039  RH  097%=      5-min Rain = 0
KWA1 071906Z 06007KT 04/04 A3024 RMK A01 T00430039  RH  097%=      5-min Rain = 0
KWA1 071907Z 06007KT 04/04 A3024 RMK A01 T00430039  RH  097%=      5-min Rain = 0
KWA1 071908Z 07007KT 04/04 A3024 RMK A01 T00430040  RH  097%=      5-min Rain = 0
KWA1 071909Z 06007KT 04/04 A3024 RMK A01 T00430040  RH  097%=      5-min Rain = 0
KWA1 071910Z 06009KT 04/04 A3023 RMK A01 T00440040  RH  097%=      5-min Rain = 0.01
KWA1 071911Z 06009KT 04/04 A3023 RMK A01 T00430039  RH  097%=      5-min Rain = 0
KWA1 071912Z 06010KT 04/04 A3023 RMK A01 T00430039  RH  097%=      5-min Rain = 0
KWA1 071913Z 07008KT 04/04 A3023 RMK A01 T00430039  RH  097%=      5-min Rain = 0
KWA1 071914Z 06007KT 04/04 A3023 RMK A01 T00430040  RH  098%=      5-min Rain = 0
KWA1 071915Z 06006KT 04/04 A3023 RMK A01 T00440040  RH  098%=      5-min Rain = 0.01
KWA1 071916Z 05008KT 04/04 A3023 RMK A01 T00440040  RH  098%=      5-min Rain = 0
KWA1 071917Z 05009KT 04/04 A3023 RMK A01 T00440040  RH  098%=      5-min Rain = 0
KWA1 071918Z 05008KT 04/04 A3023 RMK A01 T00430040  RH  097%=      5-min Rain = 0
KWA1 071919Z 05007KT 04/04 A3023 RMK A01 T00430040  RH  098%=      5-min Rain = 0
KWA1 071920Z 04006KT 04/04 A3023 RMK A01 T00430040  RH  098%=      5-min Rain = 0.01
KWA1 071921Z 04008KT 04/04 A3023 RMK A01 T00440041  RH  098%=      5-min Rain = 0
KWA1 071922Z 04006KT 04/04 A3023 RMK A01 T00440041  RH  098%=      5-min Rain = 0
KWA1 071923Z 03008KT 04/04 A3023 RMK A01 T00440041  RH  098%=      5-min Rain = 0
KWA1 071924Z 04008KT 04/04 A3023 RMK A01 T00440040  RH  098%=      5-min Rain = 0.01
KWA1 071925Z 04007KT 04/04 A3023 RMK A01 T00440040  RH  098%=      5-min Rain = 0
KWA1 071926Z 05008KT 04/04 A3023 RMK A01 T00440040  RH  098%=      5-min Rain = 0
KWA1 071927Z 05007KT 04/04 A3023 RMK A01 T00430040  RH  097%=      5-min Rain = 0
KWA1 071928Z 04005KT 04/04 A3023 RMK A01 T00440041  RH  098%=      5-min Rain = 0
KWA1 071929Z 04006KT 05/04 A3023 RMK A01 T00450042  RH  098%=      5-min Rain = 0
KWA1 071930Z 03005KT 05/04 A3023 RMK A01 T00460042  RH  098%=      5-min Rain = 0.01
KWA1 071931Z 03007KT 05/04 A3024 RMK A01 T00450041  RH  098%=      5-min Rain = 0
KWA1 071932Z 04006KT 04/04 A3024 RMK A01 T00440040  RH  097%=      5-min Rain = 0
KWA1 071933Z 02005KT 04/04 A3024 RMK A01 T00440040  RH  098%=      5-min Rain = 0
KWA1 071934Z 02006KT 05/04 A3023 RMK A01 T00450041  RH  098%=      5-min Rain = 0
KWA1 071935Z 02007KT 05/04 A3023 RMK A01 T00450042  RH  098%=      5-min Rain = 0
KWA1 071936Z 02008KT 05/04 A3023 RMK A01 T00450041  RH  098%=      5-min Rain = 0
KWA1 071937Z 03009KT 04/04 A3023 RMK A01 T00440041  RH  098%=      5-min Rain = 0.01
KWA1 071938Z 02010KT 05/04 A3023 RMK A01 T00450041  RH  098%=      5-min Rain = 0
KWA1 071939Z 02009KT 04/04 A3023 RMK A01 T00440041  RH  097%=      5-min Rain = 0
KWA1 071940Z 02009KT 05/04 A3023 RMK A01 T00450041  RH  098%=      5-min Rain = 0
KWA1 071941Z 02009KT 05/04 A3022 RMK A01 T00450041  RH  098%=      5-min Rain = 0
KWA1 071942Z 02009KT 05/04 A3022 RMK A01 T00450041  RH  098%=      5-min Rain = 0
KWA1 071943Z 02009KT 05/04 A3022 RMK A01 T00450041  RH  098%=      5-min Rain = 0.01
KWA1 071944Z 02010KT 05/04 A3022 RMK A01 T00450041  RH  098%=      5-min Rain = 0
KWA1 071945Z 02008KT 05/04 A3022 RMK A01 T00450042  RH  098%=      5-min Rain = 0
KWA1 071946Z 02008KT 05/04 A3022 RMK A01 T00450042  RH  098%=      5-min Rain = 0
KWA1 071947Z 02010KT 05/04 A3022 RMK A01 T00450042  RH  098%=      5-min Rain = 0
KWA1 071948Z 02011KT 05/04 A3022 RMK A01 T00450042  RH  098%=      5-min Rain = 0
KWA1 071949Z 01010KT 05/04 A3022 RMK A01 T00450041  RH  098%=      5-min Rain = 0
KWA1 071950Z 01009KT 05/04 A3022 RMK A01 T00450041  RH  098%=      5-min Rain = 0
KWA1 071951Z 01009KT 05/04 A3022 RMK A01 T00450042  RH  098%=      5-min Rain = 0
KWA1 071952Z 01008KT 05/04 A3022 RMK A01 T00460042  RH  098%=      5-min Rain = 0
KWA1 071953Z 01008KT 05/04 A3022 RMK A01 T00460043  RH  098%=      5-min Rain = 0.01
KWA1 071954Z 01009KT 05/04 A3022 RMK A01 T00460043  RH  098%=      5-min Rain = 0
KWA1 071955Z 01010KT 05/04 A3022 RMK A01 T00460042  RH  098%=      5-min Rain = 0
KWA1 071956Z 01010KT 05/04 A3022 RMK A01 T00460042  RH  098%=      5-min Rain = 0
KWA1 071957Z 01008KT 05/04 A3022 RMK A01 T00450042  RH  098%=      5-min Rain = 0
KWA1 071958Z 01007KT 05/04 A3022 RMK A01 T00460042  RH  098%=      5-min Rain = 0
KWA1 071959Z 01008KT 05/04 A3022 RMK A01 T00460043  RH  098%=      5-min Rain = 0
KWA1 072000Z 01009KT 05/04 A3022 RMK A01 T00460043  RH  098%=      5-min Rain = 0
KWA1 072001Z 02008KT 05/04 A3023 RMK A01 T00460042  RH  097%=      5-min Rain = 0
KWA1 072002Z 02009KT 05/04 A3023 RMK A01 T00460042  RH  097%=      5-min Rain = 0
KWA1 072003Z 02009KT 05/04 A3023 RMK A01 T00450041  RH  097%=      5-min Rain = 0
KWA1 072004Z 02009KT 05/04 A3023 RMK A01 T00450041  RH  097%=      5-min Rain = 0
KWA1 072005Z 02011KT 05/04 A3023 RMK A01 T00450041  RH  097%=      5-min Rain = 0
KWA1 072006Z 02010KT 05/04 A3023 RMK A01 T00450041  RH  097%=      5-min Rain = 0.01
KWA1 072007Z 02010KT 05/04 A3023 RMK A01 T00450041  RH  097%=      5-min Rain = 0
KWA1 072008Z 02009KT 05/04 A3023 RMK A01 T00450040  RH  097%=      5-min Rain = 0
KWA1 072009Z 02009KT 05/04 A3023 RMK A01 T00450041  RH  097%=      5-min Rain = 0
KWA1 072010Z 01007KT 05/04 A3023 RMK A01 T00460041  RH  097%=      5-min Rain = 0
KWA1 072011Z 02007KT 05/04 A3023 RMK A01 T00460041  RH  097%=      5-min Rain = 0
KWA1 072012Z 02008KT 05/04 A3023 RMK A01 T00460042  RH  097%=      5-min Rain = 0
KWA1 072013Z 03007KT 05/04 A3023 RMK A01 T00460042  RH  097%=      5-min Rain = 0.01
KWA1 072014Z 02008KT 05/04 A3023 RMK A01 T00460042  RH  097%=      5-min Rain = 0
KWA1 072015Z 03009KT 05/04 A3022 RMK A01 T00470042  RH  097%=      5-min Rain = 0
KWA1 072016Z 02009KT 05/04 A3022 RMK A01 T00470043  RH  097%=      5-min Rain = 0
KWA1 072017Z 02008KT 05/04 A3022 RMK A01 T00470043  RH  097%=      5-min Rain = 0
KWA1 072018Z 02009KT 05/04 A3022 RMK A01 T00470043  RH  097%=      5-min Rain = 0
KWA1 072019Z 02009KT 05/04 A3022 RMK A01 T00470043  RH  097%=      5-min Rain = 0
KWA1 072020Z 01009KT 05/04 A3022 RMK A01 T00470042  RH  097%=      5-min Rain = 0
KWA1 072021Z 01010KT 05/04 A3022 RMK A01 T00470042  RH  097%=      5-min Rain = 0
KWA1 072022Z 01010KT 05/04 A3022 RMK A01 T00470042  RH  097%=      5-min Rain = 0.01
KWA1 072023Z 02011KT 05/04 A3022 RMK A01 T00460041  RH  097%=      5-min Rain = 0
KWA1 072024Z 01010KT 05/04 A3022 RMK A01 T00460041  RH  096%=      5-min Rain = 0
KWA1 072025Z 01009KT 05/04 A3022 RMK A01 T00460041  RH  096%=      5-min Rain = 0
KWA1 072026Z 02008KT 05/04 A3023 RMK A01 T00460040  RH  096%=      5-min Rain = 0
KWA1 072027Z 02009KT 05/04 A3023 RMK A01 T00460041  RH  096%=      5-min Rain = 0
KWA1 072028Z 02009KT 05/04 A3023 RMK A01 T00460041  RH  096%=      5-min Rain = 0
KWA1 072029Z 02009KT 05/04 A3023 RMK A01 T00460041  RH  096%=      5-min Rain = 0
KWA1 072030Z 02009KT 05/04 A3023 RMK A01 T00460040  RH  096%=      5-min Rain = 0.01
KWA1 072031Z 02010KT 05/04 A3023 RMK A01 T00460040  RH  096%=      5-min Rain = 0
KWA1 072032Z 02010KT 05/04 A3023 RMK A01 T00460040  RH  096%=      5-min Rain = 0
KWA1 072033Z 02009KT 05/04 A3023 RMK A01 T00460040  RH  096%=      5-min Rain = 0
KWA1 072034Z 02008KT 05/04 A3023 RMK A01 T00470041  RH  096%=      5-min Rain = 0
KWA1 072035Z 02007KT 05/04 A3023 RMK A01 T00470041  RH  096%=      5-min Rain = 0
KWA1 072036Z 02009KT 05/04 A3023 RMK A01 T00470042  RH  096%=      5-min Rain = 0
KWA1 072037Z 02008KT 05/04 A3023 RMK A01 T00470042  RH  096%=      5-min Rain = 0
KWA1 072038Z 02010KT 05/04 A3023 RMK A01 T00470042  RH  097%=      5-min Rain = 0.01
KWA1 072039Z 02010KT 05/04 A3023 RMK A01 T00470042  RH  097%=      5-min Rain = 0
KWA1 072040Z 02009KT 05/04 A3023 RMK A01 T00460041  RH  096%=      5-min Rain = 0
KWA1 072041Z 02007KT 05/04 A3022 RMK A01 T00470042  RH  097%=      5-min Rain = 0
KWA1 072042Z 02010KT 05/04 A3022 RMK A01 T00470043  RH  097%=      5-min Rain = 0
KWA1 072043Z 02011KT 05/04 A3022 RMK A01 T00470042  RH  097%=      5-min Rain = 0
KWA1 072044Z 02011KT 05/04 A3022 RMK A01 T00470042  RH  097%=      5-min Rain = 0
KWA1 072045Z 02008KT 05/04 A3022 RMK A01 T00470042  RH  097%=      5-min Rain = 0
KWA1 072046Z 02010KT 05/04 A3022 RMK A01 T00470042  RH  097%=      5-min Rain = 0.01
KWA1 072047Z 02011KT 05/04 A3022 RMK A01 T00470042  RH  097%=      5-min Rain = 0
KWA1 072048Z 02011KT 05/04 A3022 RMK A01 T00460041  RH  097%=      5-min Rain = 0
KWA1 072049Z 02012KT 05/04 A3022 RMK A01 T00460041  RH  097%=      5-min Rain = 0
KWA1 072050Z 02012KT 05/04 A3022 RMK A01 T00450039  RH  096%=      5-min Rain = 0
KWA1 072051Z 01010KT 04/04 A3022 RMK A01 T00440039  RH  096%=      5-min Rain = 0
KWA1 072052Z 02011KT 04/04 A3022 RMK A01 T00440039  RH  096%=      5-min Rain = 0
KWA1 072053Z 02012KT 04/04 A3022 RMK A01 T00440038  RH  096%=      5-min Rain = 0
KWA1 072054Z 02011KT 04/04 A3022 RMK A01 T00440038  RH  096%=      5-min Rain = 0.01
KWA1 072055Z 02010KT 04/04 A3022 RMK A01 T00440038  RH  096%=      5-min Rain = 0
KWA1 072056Z 02008KT 04/04 A3022 RMK A01 T00440038  RH  096%=      5-min Rain = 0
KWA1 072057Z 02008KT 04/04 A3022 RMK A01 T00440038  RH  096%=      5-min Rain = 0
KWA1 072058Z 01011KT 04/04 A3022 RMK A01 T00440039  RH  096%=      5-min Rain = 0
KWA1 072059Z 01011KT 04/04 A3022 RMK A01 T00440039  RH  096%=      5-min Rain = 0
KWA1 072100Z 02010KT 05/04 A3022 RMK A01 T00450039  RH  096%=      5-min Rain = 0.01
KWA1 072101Z 02010KT 04/04 A3022 RMK A01 T00440039  RH  096%=      5-min Rain = 0
KWA1 072102Z 01009KT 05/04 A3022 RMK A01 T00450039  RH  096%=      5-min Rain = 0
KWA1 072103Z 01012KT 04/04 A3022 RMK A01 T00440039  RH  097%=      5-min Rain = 0
KWA1 072104Z 01012KT 04/04 A3022 RMK A01 T00440039  RH  096%=      5-min Rain = 0.01
KWA1 072105Z 01010KT 04/04 A3022 RMK A01 T00440039  RH  096%=      5-min Rain = 0
KWA1 072106Z 01012KT 04/04 A3022 RMK A01 T00440039  RH  097%=      5-min Rain = 0
KWA1 072107Z 00011KT 04/04 A3022 RMK A01 T00440039  RH  097%=      5-min Rain = 0
KWA1 072108Z 01012KT 04/04 A3022 RMK A01 T00440039  RH  096%=      5-min Rain = 0
KWA1 072109Z 01013KT 04/04 A3022 RMK A01 T00440038  RH  096%=      5-min Rain = 0.01
KWA1 072110Z 01013KT 04/04 A3023 RMK A01 T00430038  RH  096%=      5-min Rain = 0
KWA1 072111Z 01011KT 04/04 A3023 RMK A01 T00430037  RH  096%=      5-min Rain = 0
KWA1 072112Z 01013KT 04/04 A3023 RMK A01 T00420036  RH  096%=      5-min Rain = 0
KWA1 072113Z 01012KT 04/04 A3023 RMK A01 T00420036  RH  096%=      5-min Rain = 0
KWA1 072114Z 01011KT 04/04 A3023 RMK A01 T00420036  RH  096%=      5-min Rain = 0.01
KWA1 072115Z 01011KT 04/04 A3023 RMK A01 T00420036  RH  096%=      5-min Rain = 0
KWA1 072116Z 01009KT 04/04 A3023 RMK A01 T00420036  RH  096%=      5-min Rain = 0
KWA1 072117Z 01011KT 04/04 A3023 RMK A01 T00430037  RH  096%=      5-min Rain = 0
KWA1 072118Z 01013KT 04/04 A3023 RMK A01 T00420037  RH  096%=      5-min Rain = 0.01
KWA1 072119Z 01010KT 04/04 A3023 RMK A01 T00420036  RH  096%=      5-min Rain = 0
KWA1 072120Z 01010KT 04/04 A3023 RMK A01 T00420036  RH  096%=      5-min Rain = 0
KWA1 072121Z 01011KT 04/04 A3023 RMK A01 T00420036  RH  096%=      5-min Rain = 0
KWA1 072122Z 01010KT 04/04 A3023 RMK A01 T00420036  RH  096%=      5-min Rain = 0.01
KWA1 072123Z 01010KT 04/04 A3023 RMK A01 T00420037  RH  096%=      5-min Rain = 0
KWA1 072124Z 01010KT 04/04 A3023 RMK A01 T00420037  RH  096%=      5-min Rain = 0
KWA1 072125Z 01009KT 04/04 A3023 RMK A01 T00420037  RH  096%=      5-min Rain = 0.01
KWA1 072126Z 01009KT 04/04 A3022 RMK A01 T00420037  RH  096%=      5-min Rain = 0
KWA1 072127Z 00008KT 04/04 A3022 RMK A01 T00430038  RH  097%=      5-min Rain = 0
KWA1 072128Z 01011KT 04/04 A3022 RMK A01 T00430039  RH  097%=      5-min Rain = 0.01
KWA1 072129Z 01011KT 04/04 A3022 RMK A01 T00420037  RH  097%=      5-min Rain = 0
KWA1 072130Z 01012KT 04/04 A3022 RMK A01 T00420037  RH  096%=      5-min Rain = 0
KWA1 072131Z 01011KT 04/04 A3022 RMK A01 T00420037  RH  096%=      5-min Rain = 0.01
KWA1 072132Z 01012KT 04/04 A3022 RMK A01 T00420037  RH  096%=      5-min Rain = 0
KWA1 072133Z 01011KT 04/04 A3022 RMK A01 T00420037  RH  096%=      5-min Rain = 0
KWA1 072134Z 01010KT 04/04 A3022 RMK A01 T00420037  RH  096%=      5-min Rain = 0.01
KWA1 072135Z 01010KT 04/04 A3022 RMK A01 T00420037  RH  097%=      5-min Rain = 0
KWA1 072136Z 01010KT 04/04 A3022 RMK A01 T00420037  RH  097%=      5-min Rain = 0
KWA1 072137Z 36009KT 04/04 A3022 RMK A01 T00430038  RH  097%=      5-min Rain = 0
KWA1 072138Z 00014KT 04/04 A3023 RMK A01 T00430038  RH  097%=      5-min Rain = 0.01
KWA1 072139Z 00015KT 04/04 A3023 RMK A01 T00420037  RH  096%=      5-min Rain = 0
KWA1 072140Z 00014KT 04/04 A3023 RMK A01 T00410036  RH  096%=      5-min Rain = 0
KWA1 072141Z 00012KT 04/04 A3023 RMK A01 T00410035  RH  096%=      5-min Rain = 0
KWA1 072142Z 01011KT 04/04 A3023 RMK A01 T00420036  RH  096%=      5-min Rain = 0.01
KWA1 072143Z 00010KT 04/04 A3023 RMK A01 T00420036  RH  096%=      5-min Rain = 0
KWA1 072144Z 01012KT 04/04 A3023 RMK A01 T00410035  RH  096%=      5-min Rain = 0
KWA1 072145Z 01012KT 04/03 A3023 RMK A01 T00410034  RH  096%=      5-min Rain = 0
KWA1 072146Z 01014KT 04/03 A3023 RMK A01 T00400034  RH  096%=      5-min Rain = 0.01
KWA1 072147Z 01012KT 04/03 A3023 RMK A01 T00400033  RH  096%=      5-min Rain = 0
KWA1 072148Z 36011KT 04/03 A3023 RMK A01 T00400033  RH  096%=      5-min Rain = 0
KWA1 072149Z 00010KT 04/03 A3023 RMK A01 T00400034  RH  096%=      5-min Rain = 0
KWA1 072150Z 01009KT 04/03 A3023 RMK A01 T00400034  RH  096%=      5-min Rain = 0.01
KWA1 072151Z 01010KT 04/03 A3023 RMK A01 T00400034  RH  096%=      5-min Rain = 0
KWA1 072152Z 01010KT 04/03 A3023 RMK A01 T00400034  RH  096%=      5-min Rain = 0
KWA1 072153Z 01011KT 04/03 A3023 RMK A01 T00400034  RH  096%=      5-min Rain = 0
KWA1 072154Z 01011KT 04/03 A3023 RMK A01 T00400034  RH  096%=      5-min Rain = 0
KWA1 072155Z 01010KT 04/03 A3023 RMK A01 T00400034  RH  096%=      5-min Rain = 0
KWA1 072156Z 01010KT 04/03 A3023 RMK A01 T00400034  RH  096%=      5-min Rain = 0.01
KWA1 072157Z 02010KT 04/03 A3023 RMK A01 T00400034  RH  096%=      5-min Rain = 0
KWA1 072158Z 01010KT 04/03 A3023 RMK A01 T00400034  RH  096%=      5-min Rain = 0
KWA1 072159Z 01010KT 04/04 A3023 RMK A01 T00400035  RH  096%=      5-min Rain = 0
KWA1 072200Z 01009KT 04/04 A3023 RMK A01 T00400035  RH  096%=      5-min Rain = 0
KWA1 072201Z 01010KT 04/04 A3023 RMK A01 T00410036  RH  097%=      5-min Rain = 0
KWA1 072202Z 01009KT 04/04 A3022 RMK A01 T00410036  RH  097%=      5-min Rain = 0
KWA1 072203Z 01009KT 04/04 A3022 RMK A01 T00410036  RH  097%=      5-min Rain = 0.01
KWA1 072204Z 00011KT 04/04 A3022 RMK A01 T00410036  RH  097%=      5-min Rain = 0
KWA1 072205Z 01011KT 04/04 A3022 RMK A01 T00410036  RH  097%=      5-min Rain = 0
KWA1 072206Z 00011KT 04/04 A3022 RMK A01 T00400035  RH  097%=      5-min Rain = 0
KWA1 072207Z 00010KT 04/04 A3022 RMK A01 T00400035  RH  096%=      5-min Rain = 0
KWA1 072208Z 00011KT 04/04 A3022 RMK A01 T00400035  RH  097%=      5-min Rain = 0
KWA1 072209Z 01008KT 04/03 A3022 RMK A01 T00400034  RH  096%=      5-min Rain = 0.01
KWA1 072210Z 02010KT 04/03 A3022 RMK A01 T00390034  RH  097%=      5-min Rain = 0
KWA1 072211Z 02012KT 04/03 A3022 RMK A01 T00390034  RH  097%=      5-min Rain = 0
KWA1 072212Z 02012KT 04/03 A3022 RMK A01 T00380032  RH  096%=      5-min Rain = 0
KWA1 072213Z 02013KT 04/03 A3022 RMK A01 T00380032  RH  096%=      5-min Rain = 0
KWA1 072214Z 02012KT 04/03 A3022 RMK A01 T00380031  RH  096%=      5-min Rain = 0
KWA1 072215Z 02009KT 04/03 A3022 RMK A01 T00380031  RH  096%=      5-min Rain = 0.01
KWA1 072216Z 02010KT 04/03 A3022 RMK A01 T00380032  RH  096%=      5-min Rain = 0
KWA1 072217Z 02008KT 04/03 A3022 RMK A01 T00380032  RH  096%=      5-min Rain = 0
KWA1 072218Z 02008KT 04/03 A3022 RMK A01 T00380032  RH  096%=      5-min Rain = 0
KWA1 072219Z 03008KT 04/03 A3022 RMK A01 T00390033  RH  096%=      5-min Rain = 0
KWA1 072220Z 02008KT 04/03 A3022 RMK A01 T00390033  RH  096%=      5-min Rain = 0
KWA1 072221Z 02009KT 04/03 A3022 RMK A01 T00390033  RH  096%=      5-min Rain = 0
KWA1 072222Z 02008KT 04/03 A3022 RMK A01 T00380033  RH  096%=      5-min Rain = 0
KWA1 072223Z 02009KT 04/03 A3023 RMK A01 T00380032  RH  096%=      5-min Rain = 0.01
KWA1 072224Z 03009KT 04/03 A3023 RMK A01 T00380032  RH  096%=      5-min Rain = 0
KWA1 072225Z 03009KT 04/03 A3023 RMK A01 T00380032  RH  096%=      5-min Rain = 0
KWA1 072226Z 02009KT 04/03 A3023 RMK A01 T00380032  RH  096%=      5-min Rain = 0
KWA1 072227Z 02009KT 04/03 A3023 RMK A01 T00380032  RH  096%=      5-min Rain = 0
KWA1 072228Z 03008KT 04/03 A3023 RMK A01 T00380032  RH  096%=      5-min Rain = 0
KWA1 072229Z 03008KT 04/03 A3023 RMK A01 T00380033  RH  096%=      5-min Rain = 0
KWA1 072230Z 03008KT 04/03 A3023 RMK A01 T00380033  RH  096%=      5-min Rain = 0
KWA1 072231Z 03007KT 04/03 A3023 RMK A01 T00380033  RH  097%=      5-min Rain = 0.01
KWA1 072232Z 03008KT 04/03 A3023 RMK A01 T00380034  RH  097%=      5-min Rain = 0
KWA1 072233Z 03008KT 04/03 A3023 RMK A01 T00380033  RH  097%=      5-min Rain = 0
KWA1 072234Z 04007KT 04/03 A3023 RMK A01 T00390034  RH  097%=      5-min Rain = 0
KWA1 072235Z 03007KT 04/03 A3023 RMK A01 T00380034  RH  097%=      5-min Rain = 0
KWA1 072236Z 04008KT 04/03 A3023 RMK A01 T00380033  RH  097%=      5-min Rain = 0
KWA1 072237Z 04006KT 04/03 A3023 RMK A01 T00380033  RH  097%=      5-min Rain = 0
KWA1 072238Z 04008KT 04/03 A3023 RMK A01 T00380033  RH  097%=      5-min Rain = 0
KWA1 072239Z 04008KT 04/03 A3023 RMK A01 T00380033  RH  097%=      5-min Rain = 0.01
KWA1 072240Z 04008KT 04/03 A3023 RMK A01 T00380033  RH  097%=      5-min Rain = 0
KWA1 072241Z 04006KT 04/03 A3023 RMK A01 T00380033  RH  097%=      5-min Rain = 0
KWA1 072242Z 04007KT 04/03 A3023 RMK A01 T00380034  RH  097%=      5-min Rain = 0
KWA1 072243Z 05008KT 04/03 A3023 RMK A01 T00390034  RH  097%=      5-min Rain = 0
KWA1 072244Z 05008KT 04/04 A3023 RMK A01 T00390035  RH  097%=      5-min Rain = 0
KWA1 072245Z 05009KT 04/04 A3023 RMK A01 T00390035  RH  097%=      5-min Rain = 0
KWA1 072246Z 05008KT 04/04 A3023 RMK A01 T00390035  RH  097%=      5-min Rain = 0.01
KWA1 072247Z 04007KT 04/04 A3023 RMK A01 T00390035  RH  097%=      5-min Rain = 0
KWA1 072248Z 04006KT 04/04 A3023 RMK A01 T00390035  RH  097%=      5-min Rain = 0
KWA1 072249Z 04007KT 04/04 A3024 RMK A01 T00390035  RH  097%=      5-min Rain = 0
KWA1 072250Z 05006KT 04/04 A3024 RMK A01 T00390035  RH  097%=      5-min Rain = 0
KWA1 072251Z 04006KT 04/04 A3024 RMK A01 T00390035  RH  097%=      5-min Rain = 0
KWA1 072252Z 04007KT 04/04 A3024 RMK A01 T00390035  RH  097%=      5-min Rain = 0
KWA1 072253Z 04006KT 04/04 A3024 RMK A01 T00390035  RH  097%=      5-min Rain = 0
KWA1 072254Z 04007KT 04/04 A3024 RMK A01 T00390035  RH  097%=      5-min Rain = 0
KWA1 072255Z 04006KT 04/04 A3024 RMK A01 T00390035  RH  097%=      5-min Rain = 0
KWA1 072256Z 04006KT 04/04 A3024 RMK A01 T00390035  RH  097%=      5-min Rain = 0.01
KWA1 072257Z 04006KT 04/04 A3024 RMK A01 T00390035  RH  097%=      5-min Rain = 0
KWA1 072258Z 04005KT 04/04 A3024 RMK A01 T00390035  RH  097%=      5-min Rain = 0
KWA1 072259Z 04006KT 04/04 A3024 RMK A01 T00390035  RH  097%=      5-min Rain = 0
KWA1 072300Z 04005KT 04/04 A3024 RMK A01 T00390035  RH  097%=      5-min Rain = 0
KWA1 072301Z 04006KT 04/04 A3024 RMK A01 T00390035  RH  097%=      5-min Rain = 0
KWA1 072302Z 03008KT 04/04 A3024 RMK A01 T00390035  RH  097%=      5-min Rain = 0
KWA1 072303Z 04007KT 04/03 A3024 RMK A01 T00380034  RH  097%=      5-min Rain = 0
KWA1 072304Z 03006KT 04/03 A3024 RMK A01 T00380034  RH  097%=      5-min Rain = 0
KWA1 072305Z 04007KT 04/03 A3024 RMK A01 T00380034  RH  097%=      5-min Rain = 0.01
KWA1 072306Z 04006KT 04/03 A3024 RMK A01 T00380034  RH  097%=      5-min Rain = 0
KWA1 072307Z 04006KT 04/03 A3023 RMK A01 T00380034  RH  097%=      5-min Rain = 0
KWA1 072308Z 04008KT 04/04 A3023 RMK A01 T00390035  RH  097%=      5-min Rain = 0
KWA1 072309Z 04007KT 04/04 A3023 RMK A01 T00390035  RH  097%=      5-min Rain = 0
KWA1 072310Z 04007KT 04/03 A3023 RMK A01 T00380034  RH  097%=      5-min Rain = 0
KWA1 072311Z 04006KT 04/03 A3023 RMK A01 T00390034  RH  097%=      5-min Rain = 0
KWA1 072312Z 04005KT 04/03 A3023 RMK A01 T00380034  RH  097%=      5-min Rain = 0
KWA1 072313Z 04006KT 04/04 A3023 RMK A01 T00380035  RH  097%=      5-min Rain = 0
KWA1 072314Z 04007KT 04/04 A3023 RMK A01 T00380035  RH  097%=      5-min Rain = 0.01
KWA1 072315Z 04006KT 04/04 A3023 RMK A01 T00390035  RH  097%=      5-min Rain = 0
KWA1 072316Z 04007KT 04/04 A3023 RMK A01 T00380035  RH  097%=      5-min Rain = 0
KWA1 072317Z 03007KT 04/04 A3023 RMK A01 T00380035  RH  097%=      5-min Rain = 0
KWA1 072318Z 03007KT 04/04 A3023 RMK A01 T00390035  RH  097%=      5-min Rain = 0
KWA1 072319Z 03007KT 04/04 A3023 RMK A01 T00380035  RH  097%=      5-min Rain = 0
KWA1 072320Z 04006KT 04/04 A3023 RMK A01 T00390035  RH  097%=      5-min Rain = 0
KWA1 072321Z 03007KT 04/04 A3023 RMK A01 T00390035  RH  098%=      5-min Rain = 0.01
KWA1 072322Z 04006KT 04/04 A3023 RMK A01 T00390035  RH  098%=      5-min Rain = 0
KWA1 072323Z 03008KT 04/04 A3023 RMK A01 T00390035  RH  098%=      5-min Rain = 0
KWA1 072324Z 04007KT 04/04 A3023 RMK A01 T00390035  RH  098%=      5-min Rain = 0
KWA1 072325Z 04006KT 04/04 A3023 RMK A01 T00390036  RH  098%=      5-min Rain = 0
KWA1 072326Z 03006KT 04/04 A3023 RMK A01 T00390036  RH  098%=      5-min Rain = 0
KWA1 072327Z 03006KT 04/04 A3023 RMK A01 T00390035  RH  098%=      5-min Rain = 0
KWA1 072328Z 03006KT 04/04 A3023 RMK A01 T00390036  RH  098%=      5-min Rain = 0
KWA1 072329Z 04007KT 04/04 A3023 RMK A01 T00390035  RH  098%=      5-min Rain = 0
KWA1 072330Z 03007KT 04/04 A3023 RMK A01 T00390036  RH  098%=      5-min Rain = 0
KWA1 072331Z 03005KT 04/04 A3023 RMK A01 T00390036  RH  098%=      5-min Rain = 0
KWA1 072332Z 03006KT 04/04 A3023 RMK A01 T00390036  RH  098%=      5-min Rain = 0
KWA1 072333Z 03006KT 04/04 A3023 RMK A01 T00390036  RH  098%=      5-min Rain = 0
KWA1 072334Z 03006KT 04/04 A3023 RMK A01 T00390036  RH  098%=      5-min Rain = 0.01
KWA1 072335Z 03007KT 04/04 A3023 RMK A01 T00390036  RH  098%=      5-min Rain = 0
KWA1 072336Z 03006KT 04/04 A3023 RMK A01 T00390036  RH  098%=      5-min Rain = 0
KWA1 072337Z 03005KT 04/04 A3023 RMK A01 T00390036  RH  098%=      5-min Rain = 0
KWA1 072338Z 03005KT 04/04 A3023 RMK A01 T00390036  RH  098%=      5-min Rain = 0
KWA1 072339Z 04005KT 04/04 A3023 RMK A01 T00400037  RH  098%=      5-min Rain = 0
KWA1 072340Z 03006KT 04/04 A3023 RMK A01 T00400037  RH  098%=      5-min Rain = 0
KWA1 072341Z 03007KT 04/04 A3023 RMK A01 T00400037  RH  098%=      5-min Rain = 0
KWA1 072342Z 03007KT 04/04 A3023 RMK A01 T00400037  RH  098%=      5-min Rain = 0
KWA1 072343Z 03006KT 04/04 A3023 RMK A01 T00400037  RH  098%=      5-min Rain = 0.01
KWA1 072344Z 04005KT 04/04 A3023 RMK A01 T00390037  RH  098%=      5-min Rain = 0
KWA1 072345Z 03007KT 04/04 A3023 RMK A01 T00390037  RH  098%=      5-min Rain = 0
KWA1 072346Z 03007KT 04/04 A3023 RMK A01 T00400037  RH  098%=      5-min Rain = 0
KWA1 072347Z 03006KT 04/04 A3023 RMK A01 T00390037  RH  098%=      5-min Rain = 0
KWA1 072348Z 02007KT 04/04 A3023 RMK A01 T00390037  RH  098%=      5-min Rain = 0
KWA1 072349Z 02007KT 04/04 A3024 RMK A01 T00400037  RH  098%=      5-min Rain = 0
KWA1 072350Z 02007KT 04/04 A3024 RMK A01 T00400037  RH  098%=      5-min Rain = 0
KWA1 072351Z 02007KT 04/04 A3024 RMK A01 T00400037  RH  098%=      5-min Rain = 0
KWA1 072352Z 02008KT 04/04 A3024 RMK A01 T00390036  RH  098%=      5-min Rain = 0
KWA1 072353Z 02008KT 04/04 A3024 RMK A01 T00400037  RH  098%=      5-min Rain = 0.01
KWA1 072354Z 02007KT 04/04 A3024 RMK A01 T00390036  RH  098%=      5-min Rain = 0
KWA1 072355Z 02007KT 04/04 A3024 RMK A01 T00390036  RH  098%=      5-min Rain = 0
KWA1 072356Z 02005KT 04/04 A3025 RMK A01 T00390036  RH  098%=      5-min Rain = 0
KWA1 072357Z 02006KT 04/04 A3025 RMK A01 T00400037  RH  098%=      5-min Rain = 0
KWA1 072358Z 02007KT 04/04 A3025 RMK A01 T00400037  RH  098%=      5-min Rain = 0
KWA1 072359Z 01007KT 04/04 A3025 RMK A01 T00400037  RH  098%=      5-min Rain = 0
KWA1 080000Z 01008KT 04/04 A3025 RMK A01 T00400036  RH  098%=      5-min Rain = 0
KWA1 080001Z 02008KT 04/04 A3025 RMK A01 T00390036  RH  098%=      5-min Rain = 0.01
KWA1 080002Z 02007KT 04/04 A3025 RMK A01 T00390036  RH  098%=      5-min Rain = 0
KWA1 080003Z 01007KT 04/04 A3025 RMK A01 T00390036  RH  098%=      5-min Rain = 0
KWA1 080004Z 02008KT 04/04 A3025 RMK A01 T00390036  RH  098%=      5-min Rain = 0
KWA1 080005Z 02006KT 04/04 A3026 RMK A01 T00400036  RH  098%=      5-min Rain = 0
KWA1 080006Z 02006KT 04/04 A3026 RMK A01 T00400036  RH  098%=      5-min Rain = 0.01
KWA1 080007Z 02007KT 04/04 A3026 RMK A01 T00390036  RH  098%=      5-min Rain = 0
KWA1 080008Z 03007KT 04/04 A3026 RMK A01 T00390036  RH  098%=      5-min Rain = 0
KWA1 080009Z 02006KT 04/04 A3026 RMK A01 T00390036  RH  098%=      5-min Rain = 0
KWA1 080010Z 02006KT 04/04 A3026 RMK A01 T00390036  RH  098%=      5-min Rain = 0
KWA1 080011Z 02006KT 04/04 A3026 RMK A01 T00400036  RH  098%=      5-min Rain = 0.01
KWA1 080012Z 02006KT 04/04 A3026 RMK A01 T00390036  RH  098%=      5-min Rain = 0
KWA1 080013Z 01008KT 04/04 A3026 RMK A01 T00390036  RH  098%=      5-min Rain = 0
KWA1 080014Z 02007KT 04/04 A3026 RMK A01 T00390036  RH  098%=      5-min Rain = 0
KWA1 080015Z 02010KT 04/04 A3026 RMK A01 T00390035  RH  098%=      5-min Rain = 0
KWA1 080016Z 02010KT 04/04 A3026 RMK A01 T00390035  RH  098%=      5-min Rain = 0.01
KWA1 080017Z 02009KT 04/04 A3026 RMK A01 T00380035  RH  097%=      5-min Rain = 0
KWA1 080018Z 02009KT 04/04 A3026 RMK A01 T00380035  RH  097%=      5-min Rain = 0
KWA1 080019Z 02008KT 04/04 A3026 RMK A01 T00380035  RH  098%=      5-min Rain = 0
KWA1 080020Z 02008KT 04/04 A3026 RMK A01 T00390035  RH  098%=      5-min Rain = 0.01
KWA1 080021Z 02007KT 04/04 A3026 RMK A01 T00390035  RH  098%=      5-min Rain = 0
KWA1 080022Z 02008KT 04/04 A3026 RMK A01 T00390035  RH  098%=      5-min Rain = 0
KWA1 080023Z 01007KT 04/04 A3026 RMK A01 T00390035  RH  098%=      5-min Rain = 0
KWA1 080024Z 01008KT 04/04 A3026 RMK A01 T00380035  RH  098%=      5-min Rain = 0
KWA1 080025Z 02008KT 04/04 A3026 RMK A01 T00380035  RH  098%=      5-min Rain = 0.01
KWA1 080026Z 01007KT 04/04 A3026 RMK A01 T00390035  RH  098%=      5-min Rain = 0
KWA1 080027Z 01007KT 04/04 A3026 RMK A01 T00390035  RH  098%=      5-min Rain = 0
KWA1 080028Z 02008KT 04/04 A3026 RMK A01 T00380035  RH  098%=      5-min Rain = 0
KWA1 080029Z 01007KT 04/04 A3027 RMK A01 T00390035  RH  098%=      5-min Rain = 0
KWA1 080030Z 02007KT 04/04 A3027 RMK A01 T00380035  RH  098%=      5-min Rain = 0.01
KWA1 080031Z 01007KT 04/04 A3027 RMK A01 T00380035  RH  098%=      5-min Rain = 0
KWA1 080032Z 02007KT 04/04 A3027 RMK A01 T00380035  RH  098%=      5-min Rain = 0
KWA1 080033Z 01006KT 04/04 A3027 RMK A01 T00380035  RH  098%=      5-min Rain = 0
KWA1 080034Z 01006KT 04/04 A3027 RMK A01 T00380035  RH  098%=      5-min Rain = 0
KWA1 080035Z 36008KT 04/04 A3027 RMK A01 T00390035  RH  098%=      5-min Rain = 0
KWA1 080036Z 00007KT 04/04 A3027 RMK A01 T00390035  RH  098%=      5-min Rain = 0
KWA1 080037Z 00007KT 04/04 A3027 RMK A01 T00380035  RH  098%=      5-min Rain = 0.01
KWA1 080038Z 36007KT 04/04 A3027 RMK A01 T00380035  RH  098%=      5-min Rain = 0
KWA1 080039Z 00008KT 04/04 A3027 RMK A01 T00380035  RH  098%=      5-min Rain = 0
KWA1 080040Z 00007KT 04/04 A3027 RMK A01 T00380035  RH  098%=      5-min Rain = 0
KWA1 080041Z 00007KT 04/04 A3027 RMK A01 T00380035  RH  098%=      5-min Rain = 0
KWA1 080042Z 01007KT 04/04 A3027 RMK A01 T00380035  RH  098%=      5-min Rain = 0
KWA1 080043Z 01006KT 04/04 A3027 RMK A01 T00380035  RH  098%=      5-min Rain = 0
KWA1 080044Z 01007KT 04/04 A3027 RMK A01 T00380035  RH  098%=      5-min Rain = 0.01
KWA1 080045Z 01007KT 04/04 A3027 RMK A01 T00380035  RH  098%=      5-min Rain = 0
KWA1 080046Z 01007KT 04/04 A3027 RMK A01 T00380035  RH  098%=      5-min Rain = 0
KWA1 080047Z 01007KT 04/03 A3027 RMK A01 T00380034  RH  098%=      5-min Rain = 0
KWA1 080048Z 01006KT 04/03 A3027 RMK A01 T00380034  RH  098%=      5-min Rain = 0
KWA1 080049Z 01006KT 04/03 A3027 RMK A01 T00380034  RH  098%=      5-min Rain = 0
KWA1 080050Z 01006KT 04/04 A3027 RMK A01 T00380035  RH  098%=      5-min Rain = 0
KWA1 080051Z 00008KT 04/04 A3027 RMK A01 T00380035  RH  098%=      5-min Rain = 0.01
KWA1 080052Z 01009KT 04/04 A3027 RMK A01 T00380035  RH  098%=      5-min Rain = 0
KWA1 080053Z 01010KT 04/03 A3027 RMK A01 T00380034  RH  098%=      5-min Rain = 0
KWA1 080054Z 01009KT 04/03 A3027 RMK A01 T00370034  RH  098%=      5-min Rain = 0
KWA1 080055Z 01009KT 04/03 A3027 RMK A01 T00370034  RH  098%=      5-min Rain = 0
KWA1 080056Z 01008KT 04/03 A3027 RMK A01 T00370034  RH  097%=      5-min Rain = 0
KWA1 080057Z 01009KT 04/03 A3027 RMK A01 T00370033  RH  097%=      5-min Rain = 0.01
KWA1 080058Z 01008KT 04/03 A3027 RMK A01 T00370033  RH  097%=      5-min Rain = 0
KWA1 080059Z 01009KT 04/03 A3027 RMK A01 T00370033  RH  097%=      5-min Rain = 0
KWA1 080100Z 01008KT 04/03 A3027 RMK A01 T00370033  RH  097%=      5-min Rain = 0
KWA1 080101Z 02007KT 04/03 A3027 RMK A01 T00370033  RH  097%=      5-min Rain = 0
KWA1 080102Z 02008KT 04/03 A3027 RMK A01 T00370033  RH  097%=      5-min Rain = 0
KWA1 080103Z 02008KT 04/03 A3026 RMK A01 T00370033  RH  097%=      5-min Rain = 0
KWA1 080104Z 01008KT 04/03 A3026 RMK A01 T00370033  RH  097%=      5-min Rain = 0
KWA1 080105Z 02008KT 04/03 A3026 RMK A01 T00370033  RH  097%=      5-min Rain = 0.01
KWA1 080106Z 02008KT 04/03 A3026 RMK A01 T00370033  RH  097%=      5-min Rain = 0
KWA1 080107Z 02010KT 04/03 A3026 RMK A01 T00370033  RH  097%=      5-min Rain = 0
KWA1 080108Z 02009KT 04/03 A3026 RMK A01 T00370033  RH  097%=      5-min Rain = 0
KWA1 080109Z 02009KT 04/03 A3026 RMK A01 T00370033  RH  097%=      5-min Rain = 0
KWA1 080110Z 02008KT 04/03 A3026 RMK A01 T00370033  RH  097%=      5-min Rain = 0
KWA1 080111Z 02008KT 04/03 A3026 RMK A01 T00370033  RH  097%=      5-min Rain = 0
KWA1 080112Z 02008KT 04/03 A3026 RMK A01 T00370033  RH  097%=      5-min Rain = 0
KWA1 080113Z 02010KT 04/03 A3026 RMK A01 T00370033  RH  097%=      5-min Rain = 0
KWA1 080114Z 02008KT 04/03 A3026 RMK A01 T00370033  RH  097%=      5-min Rain = 0
KWA1 080115Z 02008KT 04/03 A3026 RMK A01 T00370033  RH  097%=      5-min Rain = 0.01
KWA1 080116Z 02008KT 04/03 A3026 RMK A01 T00370033  RH  097%=      5-min Rain = 0
KWA1 080117Z 03008KT 04/03 A3026 RMK A01 T00370033  RH  097%=      5-min Rain = 0
KWA1 080118Z 03008KT 04/03 A3026 RMK A01 T00370033  RH  097%=      5-min Rain = 0
KWA1 080119Z 03006KT 04/03 A3026 RMK A01 T00370033  RH  097%=      5-min Rain = 0
KWA1 080120Z 03006KT 04/03 A3026 RMK A01 T00370033  RH  097%=      5-min Rain = 0
KWA1 080121Z 03008KT 04/03 A3026 RMK A01 T00380034  RH  098%=      5-min Rain = 0
KWA1 080122Z 03009KT 04/03 A3026 RMK A01 T00370034  RH  097%=      5-min Rain = 0
KWA1 080123Z 03008KT 04/03 A3026 RMK A01 T00370033  RH  097%=      5-min Rain = 0
KWA1 080124Z 03009KT 04/03 A3026 RMK A01 T00370033  RH  097%=      5-min Rain = 0
KWA1 080125Z 03008KT 04/03 A3026 RMK A01 T00370033  RH  097%=      5-min Rain = 0.01
KWA1 080126Z 03009KT 04/03 A3026 RMK A01 T00370033  RH  097%=      5-min Rain = 0
KWA1 080127Z 03009KT 04/03 A3026 RMK A01 T00360032  RH  097%=      5-min Rain = 0
KWA1 080128Z 03009KT 04/03 A3026 RMK A01 T00360032  RH  097%=      5-min Rain = 0
KWA1 080129Z 03009KT 04/03 A3026 RMK A01 T00360032  RH  097%=      5-min Rain = 0
KWA1 080130Z 03009KT 04/03 A3026 RMK A01 T00360031  RH  097%=      5-min Rain = 0
KWA1 080131Z 03007KT 04/03 A3026 RMK A01 T00360031  RH  097%=      5-min Rain = 0
KWA1 080132Z 03006KT 04/03 A3026 RMK A01 T00360032  RH  097%=      5-min Rain = 0
KWA1 080133Z 02009KT 04/03 A3026 RMK A01 T00360032  RH  097%=      5-min Rain = 0
KWA1 080134Z 03008KT 04/03 A3026 RMK A01 T00360032  RH  097%=      5-min Rain = 0
KWA1 080135Z 02006KT 04/03 A3026 RMK A01 T00360032  RH  097%=      5-min Rain = 0
KWA1 080136Z 02006KT 04/03 A3026 RMK A01 T00360032  RH  097%=      5-min Rain = 0
KWA1 080137Z 02006KT 04/03 A3026 RMK A01 T00360032  RH  097%=      5-min Rain = 0
KWA1 080138Z 03009KT 04/03 A3026 RMK A01 T00370033  RH  097%=      5-min Rain = 0
KWA1 080139Z 02009KT 04/03 A3026 RMK A01 T00360032  RH  097%=      5-min Rain = 0
KWA1 080140Z 03008KT 04/03 A3026 RMK A01 T00360032  RH  097%=      5-min Rain = 0.01
KWA1 080141Z 02007KT 04/03 A3026 RMK A01 T00360032  RH  097%=      5-min Rain = 0
KWA1 080142Z 02007KT 04/03 A3026 RMK A01 T00360032  RH  097%=      5-min Rain = 0
KWA1 080143Z 02008KT 04/03 A3026 RMK A01 T00360032  RH  097%=      5-min Rain = 0
KWA1 080144Z 02007KT 04/03 A3026 RMK A01 T00360032  RH  097%=      5-min Rain = 0
KWA1 080145Z 02007KT 04/03 A3026 RMK A01 T00360032  RH  097%=      5-min Rain = 0
KWA1 080146Z 02007KT 04/03 A3026 RMK A01 T00360032  RH  097%=      5-min Rain = 0
KWA1 080147Z 02006KT 04/03 A3026 RMK A01 T00360032  RH  097%=      5-min Rain = 0
KWA1 080148Z 02006KT 04/03 A3026 RMK A01 T00360032  RH  097%=      5-min Rain = 0
KWA1 080149Z 02008KT 04/03 A3026 RMK A01 T00360032  RH  097%=      5-min Rain = 0
KWA1 080150Z 02008KT 04/03 A3026 RMK A01 T00360032  RH  097%=      5-min Rain = 0
KWA1 080151Z 02007KT 04/03 A3026 RMK A01 T00360032  RH  097%=      5-min Rain = 0
KWA1 080152Z 02007KT 04/03 A3026 RMK A01 T00360032  RH  097%=      5-min Rain = 0
KWA1 080153Z 02009KT 04/03 A3026 RMK A01 T00360032  RH  097%=      5-min Rain = 0
KWA1 080154Z 02008KT 04/03 A3026 RMK A01 T00360032  RH  097%=      5-min Rain = 0
KWA1 080155Z 02007KT 04/03 A3026 RMK A01 T00360032  RH  097%=      5-min Rain = 0
KWA1 080156Z 02006KT 04/03 A3026 RMK A01 T00360033  RH  097%=      5-min Rain = 0
KWA1 080157Z 02007KT 04/03 A3026 RMK A01 T00360032  RH  097%=      5-min Rain = 0
KWA1 080158Z 02007KT 04/03 A3026 RMK A01 T00360032  RH  097%=      5-min Rain = 0
KWA1 080159Z 02006KT 04/03 A3026 RMK A01 T00360032  RH  097%=      5-min Rain = 0
KWA1 080200Z 02008KT 04/03 A3026 RMK A01 T00360033  RH  097%=      5-min Rain = 0.01
KWA1 080201Z 01007KT 04/03 A3026 RMK A01 T00360032  RH  097%=      5-min Rain = 0
KWA1 080202Z 01005KT 04/03 A3026 RMK A01 T00360032  RH  097%=      5-min Rain = 0
KWA1 080203Z 02005KT 04/03 A3026 RMK A01 T00360033  RH  097%=      5-min Rain = 0
KWA1 080204Z 01006KT 04/03 A3026 RMK A01 T00370033  RH  098%=      5-min Rain = 0
KWA1 080205Z 01007KT 04/03 A3026 RMK A01 T00370033  RH  098%=      5-min Rain = 0
KWA1 080206Z 01007KT 04/03 A3026 RMK A01 T00370033  RH  097%=      5-min Rain = 0
KWA1 080207Z 01007KT 04/03 A3026 RMK A01 T00360032  RH  097%=      5-min Rain = 0
KWA1 080208Z 00008KT 04/03 A3026 RMK A01 T00360033  RH  098%=      5-min Rain = 0
KWA1 080209Z 01008KT 04/03 A3026 RMK A01 T00360032  RH  097%=      5-min Rain = 0
KWA1 080210Z 01008KT 04/03 A3026 RMK A01 T00360032  RH  097%=      5-min Rain = 0
KWA1 080211Z 01008KT 04/03 A3026 RMK A01 T00360032  RH  097%=      5-min Rain = 0
KWA1 080212Z 01010KT 04/03 A3026 RMK A01 T00360032  RH  097%=      5-min Rain = 0
KWA1 080213Z 00008KT 04/03 A3026 RMK A01 T00350031  RH  097%=      5-min Rain = 0
KWA1 080214Z 00009KT 04/03 A3026 RMK A01 T00350031  RH  097%=      5-min Rain = 0
KWA1 080215Z 01008KT 04/03 A3026 RMK A01 T00350031  RH  097%=      5-min Rain = 0
KWA1 080216Z 01007KT 04/03 A3026 RMK A01 T00350031  RH  097%=      5-min Rain = 0
KWA1 080217Z 00006KT 04/03 A3026 RMK A01 T00360032  RH  097%=      5-min Rain = 0
KWA1 080218Z 01008KT 04/03 A3026 RMK A01 T00360031  RH  097%=      5-min Rain = 0
KWA1 080219Z 01008KT 04/03 A3026 RMK A01 T00360031  RH  097%=      5-min Rain = 0.01
KWA1 080220Z 01008KT 04/03 A3026 RMK A01 T00350031  RH  097%=      5-min Rain = 0
KWA1 080221Z 01009KT 04/03 A3026 RMK A01 T00350031  RH  097%=      5-min Rain = 0
KWA1 080222Z 01008KT 04/03 A3026 RMK A01 T00350031  RH  097%=      5-min Rain = 0
KWA1 080223Z 01007KT 04/03 A3027 RMK A01 T00350030  RH  097%=      5-min Rain = 0
KWA1 080224Z 01007KT 04/03 A3027 RMK A01 T00350030  RH  097%=      5-min Rain = 0
KWA1 080225Z 01008KT 04/03 A3027 RMK A01 T00350031  RH  097%=      5-min Rain = 0
KWA1 080226Z 01008KT 04/03 A3027 RMK A01 T00350031  RH  097%=      5-min Rain = 0
KWA1 080227Z 01008KT 04/03 A3027 RMK A01 T00350031  RH  097%=      5-min Rain = 0
KWA1 080228Z 01009KT 04/03 A3027 RMK A01 T00350031  RH  097%=      5-min Rain = 0
KWA1 080229Z 01008KT 04/03 A3026 RMK A01 T00350030  RH  097%=      5-min Rain = 0
KWA1 080230Z 01008KT 04/03 A3026 RMK A01 T00350030  RH  097%=      5-min Rain = 0
KWA1 080231Z 01007KT 04/03 A3026 RMK A01 T00350030  RH  097%=      5-min Rain = 0
KWA1 080232Z 02008KT 04/03 A3026 RMK A01 T00350030  RH  097%=      5-min Rain = 0
KWA1 080233Z 02008KT 04/03 A3026 RMK A01 T00350030  RH  097%=      5-min Rain = 0
KWA1 080234Z 02010KT 04/03 A3026 RMK A01 T00350030  RH  097%=      5-min Rain = 0
KWA1 080235Z 02009KT 04/03 A3026 RMK A01 T00350030  RH  097%=      5-min Rain = 0.01
KWA1 080236Z 02008KT 04/03 A3026 RMK A01 T00350030  RH  097%=      5-min Rain = 0
KWA1 080237Z 02007KT 04/03 A3026 RMK A01 T00350030  RH  097%=      5-min Rain = 0
KWA1 080238Z 01007KT 04/03 A3026 RMK A01 T00350030  RH  097%=      5-min Rain = 0
KWA1 080239Z 01007KT 04/03 A3026 RMK A01 T00350030  RH  097%=      5-min Rain = 0
KWA1 080240Z 01007KT 04/03 A3026 RMK A01 T00350030  RH  097%=      5-min Rain = 0
KWA1 080241Z 01007KT 04/03 A3026 RMK A01 T00350030  RH  097%=      5-min Rain = 0
KWA1 080242Z 01008KT 04/03 A3026 RMK A01 T00350030  RH  097%=      5-min Rain = 0
KWA1 080243Z 01008KT 04/03 A3026 RMK A01 T00350030  RH  097%=      5-min Rain = 0
KWA1 080244Z 02008KT 04/03 A3026 RMK A01 T00350030  RH  097%=      5-min Rain = 0
KWA1 080245Z 02008KT 04/03 A3026 RMK A01 T00350030  RH  097%=      5-min Rain = 0
KWA1 080246Z 01007KT 04/03 A3026 RMK A01 T00350030  RH  097%=      5-min Rain = 0
KWA1 080247Z 02007KT 04/03 A3026 RMK A01 T00350030  RH  097%=      5-min Rain = 0.01
KWA1 080248Z 02006KT 04/03 A3026 RMK A01 T00350031  RH  097%=      5-min Rain = 0
KWA1 080249Z 01007KT 04/03 A3026 RMK A01 T00350031  RH  097%=      5-min Rain = 0
KWA1 080250Z 01006KT 04/03 A3026 RMK A01 T00350031  RH  097%=      5-min Rain = 0
KWA1 080251Z 02008KT 04/03 A3026 RMK A01 T00350031  RH  097%=      5-min Rain = 0
KWA1 080252Z 01007KT 04/03 A3026 RMK A01 T00350031  RH  097%=      5-min Rain = 0
KWA1 080253Z 01008KT 04/03 A3026 RMK A01 T00350031  RH  097%=      5-min Rain = 0
KWA1 080254Z 01008KT 04/03 A3025 RMK A01 T00350031  RH  097%=      5-min Rain = 0
KWA1 080255Z 02008KT 04/03 A3025 RMK A01 T00350031  RH  097%=      5-min Rain = 0
KWA1 080256Z 03009KT 04/03 A3025 RMK A01 T00350032  RH  097%=      5-min Rain = 0
KWA1 080257Z 03008KT 04/03 A3025 RMK A01 T00350031  RH  097%=      5-min Rain = 0
KWA1 080258Z 03008KT 04/03 A3025 RMK A01 T00350031  RH  097%=      5-min Rain = 0
KWA1 080259Z 02008KT 04/03 A3025 RMK A01 T00350031  RH  097%=      5-min Rain = 0
KWA1 080300Z 02007KT 04/03 A3025 RMK A01 T00350031  RH  097%=      5-min Rain = 0
KWA1 080301Z 02008KT 04/03 A3025 RMK A01 T00350031  RH  097%=      5-min Rain = 0
KWA1 080302Z 02009KT 04/03 A3025 RMK A01 T00350031  RH  097%=      5-min Rain = 0
KWA1 080303Z 02009KT 04/03 A3026 RMK A01 T00350031  RH  097%=      5-min Rain = 0
KWA1 080304Z 02008KT 04/03 A3026 RMK A01 T00350031  RH  097%=      5-min Rain = 0
KWA1 080305Z 01006KT 04/03 A3026 RMK A01 T00350031  RH  097%=      5-min Rain = 0
KWA1 080306Z 00008KT 04/03 A3026 RMK A01 T00350031  RH  097%=      5-min Rain = 0
KWA1 080307Z 01009KT 04/03 A3026 RMK A01 T00350032  RH  098%=      5-min Rain = 0
KWA1 080308Z 00009KT 04/03 A3026 RMK A01 T00350031  RH  097%=      5-min Rain = 0
KWA1 080309Z 00009KT 04/03 A3026 RMK A01 T00350031  RH  097%=      5-min Rain = 0
KWA1 080310Z 00009KT 03/03 A3027 RMK A01 T00340031  RH  097%=      5-min Rain = 0
KWA1 080311Z 00009KT 03/03 A3027 RMK A01 T00340030  RH  097%=      5-min Rain = 0
KWA1 080312Z 00008KT 03/03 A3027 RMK A01 T00340030  RH  097%=      5-min Rain = 0
KWA1 080313Z 00009KT 03/03 A3027 RMK A01 T00340030  RH  097%=      5-min Rain = 0
KWA1 080314Z 00009KT 03/03 A3027 RMK A01 T00340030  RH  097%=      5-min Rain = 0
KWA1 080315Z 00008KT 03/03 A3027 RMK A01 T00340031  RH  097%=      5-min Rain = 0
KWA1 080316Z 00007KT 03/03 A3027 RMK A01 T00340031  RH  097%=      5-min Rain = 0
KWA1 080317Z 36008KT 03/03 A3027 RMK A01 T00340031  RH  097%=      5-min Rain = 0
KWA1 080318Z 00008KT 04/03 A3027 RMK A01 T00350031  RH  097%=      5-min Rain = 0
KWA1 080319Z 00008KT 04/03 A3027 RMK A01 T00350031  RH  097%=      5-min Rain = 0
KWA1 080320Z 00007KT 03/03 A3027 RMK A01 T00340031  RH  097%=      5-min Rain = 0
KWA1 080321Z 00008KT 03/03 A3027 RMK A01 T00340031  RH  097%=      5-min Rain = 0
KWA1 080322Z 00009KT 04/03 A3027 RMK A01 T00350031  RH  097%=      5-min Rain = 0
KWA1 080323Z 00009KT 03/03 A3027 RMK A01 T00340031  RH  097%=      5-min Rain = 0
KWA1 080324Z 01009KT 03/03 A3027 RMK A01 T00340030  RH  097%=      5-min Rain = 0
KWA1 080325Z 01008KT 03/03 A3027 RMK A01 T00340030  RH  097%=      5-min Rain = 0
KWA1 080326Z 01008KT 03/03 A3027 RMK A01 T00340030  RH  097%=      5-min Rain = 0
KWA1 080327Z 01009KT 03/03 A3027 RMK A01 T00340031  RH  097%=      5-min Rain = 0.01
KWA1 080328Z 01009KT 03/03 A3027 RMK A01 T00340030  RH  097%=      5-min Rain = 0
KWA1 080329Z 01008KT 03/03 A3027 RMK A01 T00340030  RH  097%=      5-min Rain = 0
KWA1 080330Z 02008KT 04/03 A3027 RMK A01 T00350031  RH  097%=      5-min Rain = 0
KWA1 080331Z 02009KT 03/03 A3026 RMK A01 T00340030  RH  097%=      5-min Rain = 0
KWA1 080332Z 02009KT 03/03 A3026 RMK A01 T00340030  RH  097%=      5-min Rain = 0
KWA1 080333Z 02008KT 03/03 A3026 RMK A01 T00340030  RH  097%=      5-min Rain = 0
KWA1 080334Z 02008KT 03/03 A3026 RMK A01 T00340030  RH  097%=      5-min Rain = 0
KWA1 080335Z 02008KT 04/03 A3026 RMK A01 T00350031  RH  097%=      5-min Rain = 0
KWA1 080336Z 02008KT 04/03 A3026 RMK A01 T00350031  RH  097%=      5-min Rain = 0
KWA1 080337Z 02009KT 04/03 A3026 RMK A01 T00350031  RH  097%=      5-min Rain = 0
KWA1 080338Z 02010KT 04/03 A3026 RMK A01 T00350031  RH  097%=      5-min Rain = 0
KWA1 080339Z 02010KT 03/03 A3026 RMK A01 T00340030  RH  097%=      5-min Rain = 0
KWA1 080340Z 02011KT 04/03 A3026 RMK A01 T00350030  RH  097%=      5-min Rain = 0
KWA1 080341Z 02010KT 03/03 A3026 RMK A01 T00340030  RH  097%=      5-min Rain = 0
KWA1 080342Z 02012KT 03/03 A3026 RMK A01 T00340030  RH  097%=      5-min Rain = 0
KWA1 080343Z 03008KT 03/03 A3025 RMK A01 T00340030  RH  097%=      5-min Rain = 0
KWA1 080344Z 03011KT 03/03 A3025 RMK A01 T00340030  RH  097%=      5-min Rain = 0
KWA1 080345Z 03010KT 03/03 A3025 RMK A01 T00340030  RH  097%=      5-min Rain = 0
KWA1 080346Z 03009KT 03/03 A3025 RMK A01 T00340030  RH  097%=      5-min Rain = 0
KWA1 080347Z 03010KT 03/03 A3025 RMK A01 T00340030  RH  097%=      5-min Rain = 0
KWA1 080348Z 03008KT 03/03 A3025 RMK A01 T00340030  RH  097%=      5-min Rain = 0
KWA1 080349Z 03008KT 03/03 A3025 RMK A01 T00340030  RH  097%=      5-min Rain = 0
KWA1 080350Z 03009KT 03/03 A3025 RMK A01 T00340031  RH  097%=      5-min Rain = 0
KWA1 080351Z 03010KT 03/03 A3024 RMK A01 T00340030  RH  097%=      5-min Rain = 0
KWA1 080352Z 03009KT 03/03 A3024 RMK A01 T00340030  RH  097%=      5-min Rain = 0
KWA1 080353Z 04010KT 03/03 A3024 RMK A01 T00340030  RH  097%=      5-min Rain = 0
KWA1 080354Z 04012KT 03/03 A3023 RMK A01 T00340030  RH  097%=      5-min Rain = 0
KWA1 080355Z 04010KT 03/03 A3023 RMK A01 T00340030  RH  097%=      5-min Rain = 0
KWA1 080356Z 04012KT 03/03 A3023 RMK A01 T00340030  RH  097%=      5-min Rain = 0
KWA1 080357Z 03011KT 03/03 A3023 RMK A01 T00340030  RH  097%=      5-min Rain = 0
KWA1 080358Z 03012KT 03/03 A3023 RMK A01 T00340030  RH  097%=      5-min Rain = 0
KWA1 080359Z 03011KT 03/03 A3024 RMK A01 T00340030  RH  097%=      5-min Rain = 0
KWA1 080400Z 03009KT 03/03 A3024 RMK A01 T00340030  RH  097%=      5-min Rain = 0
KWA1 080401Z 04009KT 03/03 A3024 RMK A01 T00340030  RH  097%=      5-min Rain = 0
KWA1 080402Z 04011KT 03/03 A3024 RMK A01 T00340030  RH  097%=      5-min Rain = 0
KWA1 080403Z 04008KT 03/03 A3024 RMK A01 T00340030  RH  097%=      5-min Rain = 0
KWA1 080404Z 04009KT 03/03 A3023 RMK A01 T00340030  RH  097%=      5-min Rain = 0
KWA1 080405Z 04011KT 03/03 A3023 RMK A01 T00340030  RH  097%=      5-min Rain = 0
KWA1 080406Z 04011KT 03/03 A3023 RMK A01 T00340030  RH  097%=      5-min Rain = 0
KWA1 080407Z 05009KT 03/03 A3022 RMK A01 T00340030  RH  097%=      5-min Rain = 0
KWA1 080408Z 05009KT 03/03 A3022 RMK A01 T00340030  RH  097%=      5-min Rain = 0
KWA1 080409Z 05009KT 03/03 A3022 RMK A01 T00340030  RH  097%=      5-min Rain = 0
KWA1 080410Z 05010KT 03/03 A3022 RMK A01 T00340030  RH  097%=      5-min Rain = 0
KWA1 080411Z 05009KT 04/03 A3023 RMK A01 T00350030  RH  097%=      5-min Rain = 0
KWA1 080412Z 04010KT 03/03 A3023 RMK A01 T00340030  RH  097%=      5-min Rain = 0
KWA1 080413Z 04012KT 03/03 A3024 RMK A01 T00340030  RH  097%=      5-min Rain = 0
KWA1 080414Z 04011KT 03/03 A3024 RMK A01 T00340029  RH  097%=      5-min Rain = 0
KWA1 080415Z 04011KT 03/03 A3024 RMK A01 T00340029  RH  097%=      5-min Rain = 0
KWA1 080416Z 04010KT 03/03 A3024 RMK A01 T00340029  RH  097%=      5-min Rain = 0
KWA1 080417Z 04011KT 03/03 A3024 RMK A01 T00340029  RH  097%=      5-min Rain = 0
KWA1 080418Z 04011KT 03/03 A3023 RMK A01 T00330029  RH  097%=      5-min Rain = 0
KWA1 080419Z 04012KT 03/03 A3023 RMK A01 T00330029  RH  097%=      5-min Rain = 0
KWA1 080420Z 04010KT 03/03 A3023 RMK A01 T00330029  RH  097%=      5-min Rain = 0
KWA1 080421Z 05008KT 03/03 A3023 RMK A01 T00330029  RH  097%=      5-min Rain = 0
KWA1 080422Z 05009KT 03/03 A3023 RMK A01 T00340030  RH  097%=      5-min Rain = 0
KWA1 080423Z 04009KT 03/03 A3023 RMK A01 T00340030  RH  097%=      5-min Rain = 0
KWA1 080424Z 05009KT 03/03 A3023 RMK A01 T00340030  RH  097%=      5-min Rain = 0
KWA1 080425Z 05011KT 03/03 A3023 RMK A01 T00340030  RH  097%=      5-min Rain = 0
KWA1 080426Z 05010KT 03/03 A3023 RMK A01 T00340030  RH  097%=      5-min Rain = 0
KWA1 080427Z 05009KT 03/03 A3022 RMK A01 T00340029  RH  097%=      5-min Rain = 0
KWA1 080428Z 05011KT 03/03 A3022 RMK A01 T00340030  RH  097%=      5-min Rain = 0
KWA1 080429Z 06011KT 03/03 A3022 RMK A01 T00330029  RH  097%=      5-min Rain = 0
KWA1 080430Z 05013KT 03/03 A3022 RMK A01 T00330029  RH  097%=      5-min Rain = 0
KWA1 080431Z 05012KT 03/03 A3021 RMK A01 T00330029  RH  097%=      5-min Rain = 0
KWA1 080432Z 05011KT 03/03 A3021 RMK A01 T00330029  RH  097%=      5-min Rain = 0
KWA1 080433Z 05011KT 03/03 A3021 RMK A01 T00330029  RH  097%=      5-min Rain = 0
KWA1 080434Z 05011KT 03/03 A3021 RMK A01 T00330029  RH  097%=      5-min Rain = 0
KWA1 080435Z 05013KT 03/03 A3021 RMK A01 T00330029  RH  097%=      5-min Rain = 0
KWA1 080436Z 05013KT 03/03 A3021 RMK A01 T00330029  RH  097%=      5-min Rain = 0
KWA1 080437Z 04011KT 03/03 A3021 RMK A01 T00330029  RH  097%=      5-min Rain = 0
KWA1 080438Z 05012KT 03/03 A3021 RMK A01 T00330029  RH  097%=      5-min Rain = 0
KWA1 080439Z 04012KT 03/03 A3022 RMK A01 T00330029  RH  097%=      5-min Rain = 0
KWA1 080440Z 04011KT 03/03 A3022 RMK A01 T00330029  RH  097%=      5-min Rain = 0
KWA1 080441Z 04007KT 03/03 A3022 RMK A01 T00330029  RH  097%=      5-min Rain = 0
KWA1 080442Z 04008KT 03/03 A3023 RMK A01 T00330029  RH  097%=      5-min Rain = 0
KWA1 080443Z 04006KT 03/03 A3023 RMK A01 T00330029  RH  097%=      5-min Rain = 0
KWA1 080444Z 03007KT 03/03 A3023 RMK A01 T00330029  RH  097%=      5-min Rain = 0
KWA1 080445Z 03008KT 03/03 A3023 RMK A01 T00340030  RH  097%=      5-min Rain = 0
KWA1 080446Z 03009KT 03/03 A3023 RMK A01 T00330029  RH  097%=      5-min Rain = 0
KWA1 080447Z 03008KT 03/03 A3023 RMK A01 T00330029  RH  097%=      5-min Rain = 0
KWA1 080448Z 03008KT 03/03 A3023 RMK A01 T00330029  RH  097%=      5-min Rain = 0
KWA1 080449Z 03010KT 03/03 A3023 RMK A01 T00330029  RH  097%=      5-min Rain = 0
KWA1 080450Z 04010KT 03/03 A3023 RMK A01 T00330029  RH  097%=      5-min Rain = 0
KWA1 080451Z 03011KT 03/03 A3022 RMK A01 T00330029  RH  097%=      5-min Rain = 0
KWA1 080452Z 03011KT 03/03 A3022 RMK A01 T00330029  RH  097%=      5-min Rain = 0
KWA1 080453Z 03011KT 03/03 A3022 RMK A01 T00330028  RH  097%=      5-min Rain = 0
KWA1 080454Z 03010KT 03/03 A3023 RMK A01 T00330028  RH  097%=      5-min Rain = 0
KWA1 080455Z 02007KT 03/03 A3023 RMK A01 T00330028  RH  097%=      5-min Rain = 0
KWA1 080456Z 02008KT 03/03 A3023 RMK A01 T00330028  RH  097%=      5-min Rain = 0
KWA1 080457Z 02008KT 03/03 A3023 RMK A01 T00330028  RH  097%=      5-min Rain = 0
KWA1 080458Z 02006KT 03/03 A3023 RMK A01 T00330028  RH  097%=      5-min Rain = 0
KWA1 080459Z 03009KT 03/03 A3022 RMK A01 T00330028  RH  097%=      5-min Rain = 0
KWA1 080500Z 03010KT 03/03 A3022 RMK A01 T00330028  RH  097%=      5-min Rain = 0
KWA1 080501Z 03011KT 03/03 A3021 RMK A01 T00330028  RH  097%=      5-min Rain = 0
KWA1 080502Z 03010KT 03/03 A3021 RMK A01 T00330028  RH  097%=      5-min Rain = 0
KWA1 080503Z 03009KT 03/03 A3021 RMK A01 T00320027  RH  097%=      5-min Rain = 0
KWA1 080504Z 03011KT 03/03 A3022 RMK A01 T00320028  RH  097%=      5-min Rain = 0
KWA1 080505Z 03012KT 03/03 A3022 RMK A01 T00320027  RH  097%=      5-min Rain = 0
KWA1 080506Z 03011KT 03/03 A3022 RMK A01 T00320027  RH  097%=      5-min Rain = 0
KWA1 080507Z 03008KT 03/03 A3022 RMK A01 T00320027  RH  097%=      5-min Rain = 0
KWA1 080508Z 02012KT 03/03 A3023 RMK A01 T00320027  RH  097%=      5-min Rain = 0
KWA1 080509Z 02011KT 03/03 A3023 RMK A01 T00320027  RH  096%=      5-min Rain = 0
KWA1 080510Z 02010KT 03/03 A3023 RMK A01 T00320026  RH  096%=      5-min Rain = 0
KWA1 080511Z 02010KT 03/03 A3023 RMK A01 T00320026  RH  096%=      5-min Rain = 0
KWA1 080512Z 02011KT 03/03 A3023 RMK A01 T00320026  RH  096%=      5-min Rain = 0
KWA1 080513Z 03010KT 03/03 A3023 RMK A01 T00320026  RH  096%=      5-min Rain = 0
KWA1 080514Z 03012KT 03/03 A3022 RMK A01 T00320026  RH  096%=      5-min Rain = 0
KWA1 080515Z 03011KT 03/03 A3022 RMK A01 T00310026  RH  096%=      5-min Rain = 0
KWA1 080516Z 04011KT 03/03 A3023 RMK A01 T00310025  RH  096%=      5-min Rain = 0
KWA1 080517Z 03009KT 03/03 A3023 RMK A01 T00310025  RH  096%=      5-min Rain = 0
KWA1 080518Z 02011KT 03/03 A3023 RMK A01 T00310025  RH  096%=      5-min Rain = 0
KWA1 080519Z 03011KT 03/03 A3023 RMK A01 T00310025  RH  096%=      5-min Rain = 0
KWA1 080520Z 03010KT 03/03 A3023 RMK A01 T00310025  RH  096%=      5-min Rain = 0
KWA1 080521Z 03011KT 03/03 A3023 RMK A01 T00310025  RH  096%=      5-min Rain = 0
KWA1 080522Z 02010KT 03/03 A3024 RMK A01 T00310025  RH  096%=      5-min Rain = 0
KWA1 080523Z 02008KT 03/03 A3024 RMK A01 T00310025  RH  096%=      5-min Rain = 0
KWA1 080524Z 02009KT 03/03 A3025 RMK A01 T00310025  RH  096%=      5-min Rain = 0
KWA1 080525Z 02008KT 03/03 A3025 RMK A01 T00310025  RH  096%=      5-min Rain = 0
KWA1 080526Z 03009KT 03/03 A3025 RMK A01 T00310025  RH  096%=      5-min Rain = 0
KWA1 080527Z 03009KT 03/03 A3024 RMK A01 T00310025  RH  096%=      5-min Rain = 0
KWA1 080528Z 03009KT 03/03 A3024 RMK A01 T00320026  RH  096%=      5-min Rain = 0
KWA1 080529Z 03010KT 03/03 A3024 RMK A01 T00320026  RH  096%=      5-min Rain = 0
KWA1 080530Z 02007KT 03/03 A3024 RMK A01 T00320026  RH  096%=      5-min Rain = 0
KWA1 080531Z 02006KT 03/03 A3024 RMK A01 T00320026  RH  096%=      5-min Rain = 0
KWA1 080532Z 02008KT 03/03 A3024 RMK A01 T00320027  RH  096%=      5-min Rain = 0
KWA1 080533Z 03009KT 03/03 A3024 RMK A01 T00320027  RH  097%=      5-min Rain = 0
KWA1 080534Z 02010KT 03/03 A3024 RMK A01 T00320027  RH  097%=      5-min Rain = 0
KWA1 080535Z 02010KT 03/03 A3024 RMK A01 T00320027  RH  097%=      5-min Rain = 0
KWA1 080536Z 02009KT 03/03 A3024 RMK A01 T00310026  RH  096%=      5-min Rain = 0
KWA1 080537Z 01010KT 03/03 A3024 RMK A01 T00310026  RH  096%=      5-min Rain = 0
KWA1 080538Z 02010KT 03/03 A3024 RMK A01 T00310026  RH  096%=      5-min Rain = 0
KWA1 080539Z 02008KT 03/03 A3024 RMK A01 T00310026  RH  096%=      5-min Rain = 0
KWA1 080540Z 01008KT 03/03 A3024 RMK A01 T00310026  RH  097%=      5-min Rain = 0
KWA1 080541Z 01008KT 03/03 A3024 RMK A01 T00310027  RH  097%=      5-min Rain = 0
KWA1 080542Z 02009KT 03/03 A3024 RMK A01 T00310026  RH  097%=      5-min Rain = 0
KWA1 080543Z 02008KT 03/03 A3024 RMK A01 T00310026  RH  097%=      5-min Rain = 0
KWA1 080544Z 02009KT 03/03 A3024 RMK A01 T00310026  RH  097%=      5-min Rain = 0
KWA1 080545Z 01009KT 03/03 A3024 RMK A01 T00310026  RH  097%=      5-min Rain = 0
KWA1 080546Z 01008KT 03/03 A3024 RMK A01 T00310026  RH  097%=      5-min Rain = 0
KWA1 080547Z 01009KT 03/03 A3024 RMK A01 T00310027  RH  097%=      5-min Rain = 0
KWA1 080548Z 01007KT 03/03 A3025 RMK A01 T00310027  RH  097%=      5-min Rain = 0
KWA1 080549Z 01008KT 03/03 A3025 RMK A01 T00310027  RH  097%=      5-min Rain = 0
KWA1 080550Z 01008KT 03/03 A3025 RMK A01 T00310027  RH  097%=      5-min Rain = 0
KWA1 080551Z 01008KT 03/03 A3026 RMK A01 T00310027  RH  097%=      5-min Rain = 0
KWA1 080552Z 02008KT 03/03 A3025 RMK A01 T00310027  RH  097%=      5-min Rain = 0
KWA1 080553Z 01006KT 03/03 A3025 RMK A01 T00310027  RH  097%=      5-min Rain = 0
KWA1 080554Z 01007KT 03/03 A3025 RMK A01 T00310027  RH  097%=      5-min Rain = 0
KWA1 080555Z 01009KT 03/03 A3025 RMK A01 T00310027  RH  097%=      5-min Rain = 0
KWA1 080556Z 01009KT 03/03 A3025 RMK A01 T00310027  RH  097%=      5-min Rain = 0
KWA1 080557Z 02010KT 03/03 A3025 RMK A01 T00310027  RH  097%=      5-min Rain = 0
KWA1 080558Z 02008KT 03/03 A3025 RMK A01 T00310027  RH  097%=      5-min Rain = 0
KWA1 080559Z 02007KT 03/03 A3025 RMK A01 T00310027  RH  097%=      5-min Rain = 0

Page generated in 0.0749 seconds.